Sigfox identifier Datetime Temperature Humidity SNR
003C468E 2019-04-12 12:30:21 10 36 21.8
003C468E 2019-04-12 11:58:21 11.3 36 21.9
003C468E 2019-04-12 11:26:23 12.5 37 21.9
003C468E 2019-04-12 10:54:24 12 40 22.1
003C468E 2019-04-12 10:22:25 10.1 43 22.9
003C468E 2019-04-12 09:50:24 8.6 42 22.9
003C468E 2019-04-12 09:18:23 8 43 22.9
003C468E 2019-04-12 08:46:23 6 52 22.9
003C468E 2019-04-12 08:14:18 -0.8 49 22.9
003C468E 2019-04-12 07:42:08 -1.6 36 22.7
003C468E 2019-04-12 07:09:59 -1.4 35 22.7
003C468E 2019-04-12 06:37:51 -1.2 35 22.6
003C468E 2019-04-12 06:05:44 -0.9 35 22.5
003C468E 2019-04-12 05:33:36 -0.5 35 22.5
003C468E 2019-04-12 05:01:29 -0.1 35 22.4
003C468E 2019-04-12 04:29:23 0.3 35 22.4
003C468E 2019-04-12 03:57:16 0.7 35 22.3
003C468E 2019-04-12 03:25:10 1.1 35 22.3
003C468E 2019-04-12 02:53:03 1.6 35 22.2
003C468E 2019-04-12 02:20:58 2.1 35 22.2
003C468E 2019-04-12 01:48:53 2.6 35 22.1
003C468E 2019-04-12 01:16:48 3.2 35 22.2
003C468E 2019-04-12 00:44:44 3.8 35 22.3
003C468E 2019-04-12 00:12:39 4.5 35 22.3
003C468E 2019-04-11 23:40:34 5.3 34 22.3
003C468E 2019-04-11 23:08:28 6.2 34 22.2
003C468E 2019-04-11 22:36:24 7.1 34 22.3
003C468E 2019-04-11 22:04:20 8.2 34 22.3
003C468E 2019-04-11 21:32:18 9.4 33 22.3
003C468E 2019-04-11 21:00:17 10.8 33 21.4
003C468E 2019-04-11 20:28:16 12.3 32 21.4
003C468E 2019-04-11 19:56:16 14 32 21.4
003C468E 2019-04-11 19:24:16 15 34 21.5
003C468E 2019-04-11 17:47:37 9.3 42 21.7
003C468E 2019-04-11 17:15:33 7.4 36 21.9
003C468E 2019-04-11 16:43:30 7.6 36 22
003C468E 2019-04-11 16:11:26 7.8 36 22
003C468E 2019-04-11 15:39:23 8.3 36 22.1
003C468E 2019-04-11 15:07:20 8.8 36 22.1
003C468E 2019-04-11 14:35:18 9.4 36 22.1
003C468E 2019-04-11 14:03:18 10.2 36 22.2
003C468E 2019-04-11 13:31:17 11.1 36 22.3
003C468E 2019-04-11 12:59:21 12.3 35 22.4
003C468E 2019-04-11 12:27:24 13.5 35 22.4
003C468E 2019-04-11 11:55:28 13.8 39 22.5
003C468E 2019-04-11 08:43:24 1.4 69 22.4
003C468E 2019-04-11 08:11:14 -1.5 41 22.2
003C468E 2019-04-11 07:39:03 -1.5 41 22.1
003C468E 2019-04-11 07:06:51 -1.3 41 22.1
003C468E 2019-04-11 06:34:40 -1.1 41 22.1
003C468E 2019-04-11 06:02:29 -0.8 41 21.9
003C468E 2019-04-11 05:30:19 -0.5 41 21.7
003C468E 2019-04-11 04:58:09 -0.1 41 21.7
003C468E 2019-04-11 04:26:00 0.2 41 21.7
003C468E 2019-04-11 03:53:51 0.6 41 21.6
003C468E 2019-04-11 03:21:43 1.1 41 21.6
003C468E 2019-04-11 02:49:35 1.6 41 21.6
003C468E 2019-04-11 02:17:27 2.1 40 21.5
003C468E 2019-04-11 01:45:20 2.7 40 21.4
003C468E 2019-04-11 01:13:13 3.3 40 21.3
003C468E 2019-04-11 00:41:08 3.9 40 21.2
003C468E 2019-04-11 00:09:02 4.7 40 21.3
003C468E 2019-04-10 23:36:58 5.4 40 21.3
003C468E 2019-04-10 23:04:55 6.2 39 21.3
003C468E 2019-04-10 22:32:53 7.2 39 21.3
003C468E 2019-04-10 22:00:52 8.3 38 21.3
003C468E 2019-04-10 21:28:51 9.6 37 21.3
003C468E 2019-04-10 20:56:51 11.2 37 21.4
003C468E 2019-04-10 20:24:52 12.9 35 21.4
003C468E 2019-04-10 19:52:54 14.5 35 21.5
003C468E 2019-04-10 19:20:57 14 40 21.6
003C468E 2019-04-10 18:48:55 11.1 43 21.8
003C468E 2019-04-10 18:16:54 11.1 41 21.8
003C468E 2019-04-10 17:44:51 10.5 40 21.8
003C468E 2019-04-10 17:12:50 11.9 39 21.8
003C468E 2019-04-10 16:40:55 11.6 45 22.1
003C468E 2019-04-10 16:08:51 6.7 58 22.2
003C468E 2019-04-10 15:36:11 5.2 50 22.2
003C468E 2019-04-10 15:04:06 4.7 50 22.3
003C468E 2019-04-10 14:32:00 4.3 50 22.2
003C468E 2019-04-10 13:59:54 3.9 50 23
003C468E 2019-04-10 13:27:47 3.5 49 23
003C468E 2019-04-10 12:55:40 3.3 49 23.1
003C468E 2019-04-10 12:23:34 3 49 23.1
003C468E 2019-04-10 11:51:26 2.5 50 23.1
003C468E 2019-04-10 11:19:19 2 49 23.1
003C468E 2019-04-10 10:47:11 1.4 49 23.2
003C468E 2019-04-10 10:15:04 0.8 48 23.2
003C468E 2019-04-10 09:42:53 0.4 47 23.1
003C468E 2019-04-10 09:10:43 0.1 47 23.1
003C468E 2019-04-10 08:38:32 -0.3 47 23.1
003C468E 2019-04-10 08:06:21 -0.4 46 23
003C468E 2019-04-10 07:34:10 -0.5 46 23
003C468E 2019-04-10 07:01:57 -0.4 46 23
003C468E 2019-04-10 06:29:45 -0.3 46 22.9
003C468E 2019-04-10 05:57:34 -0.1 46 22.9
003C468E 2019-04-10 05:25:22 0 46 22.8
003C468E 2019-04-10 04:53:10 0.2 46 22.8
003C468E 2019-04-10 04:20:59 0.5 45 22.8
003C468E 2019-04-10 03:48:49 0.7 45 22.6
003C468E 2019-04-10 03:16:40 0.9 45 22.6
003C468E 2019-04-10 02:44:32 1.2 45 22.6
003C468E 2019-04-10 02:12:23 1.5 45 22.5
003C468E 2019-04-10 01:40:12 1.8 45 22.5
003C468E 2019-04-10 01:08:03 2.1 45 22.4
003C468E 2019-04-10 00:35:55 2.4 45 21.4
003C468E 2019-04-10 00:03:46 2.7 45 21.3
003C468E 2019-04-09 23:31:39 3.1 45 21.2
003C468E 2019-04-09 22:59:31 3.4 45 21.1
003C468E 2019-04-09 22:27:24 3.8 44 20.9
003C468E 2019-04-09 21:55:20 4.2 44 20.9
003C468E 2019-04-09 21:23:14 4.6 44 20.5
003C468E 2019-04-09 20:51:09 5 44 20.4
003C468E 2019-04-09 20:19:04 5.5 44 20.4
003C468E 2019-04-09 19:47:00 6.2 44 20.5
003C468E 2019-04-09 19:14:58 6.9 44 20.7
003C468E 2019-04-09 18:42:57 7.7 44 20.8
003C468E 2019-04-09 18:10:57 8.6 44 20.7
003C468E 2019-04-09 17:38:59 9.1 45 20.7
003C468E 2019-04-09 17:06:59 8.8 46 20.9
003C468E 2019-04-09 16:34:58 8.8 45 21
003C468E 2019-04-09 16:02:57 9 46 21.1
003C468E 2019-04-09 15:30:57 9.3 45 21.1
003C468E 2019-04-09 14:58:57 9.4 46 21.3
003C468E 2019-04-09 14:26:57 9.1 46 21.4
003C468E 2019-04-09 13:54:58 8.7 46 21.4
003C468E 2019-04-09 13:22:58 8.8 45 21.5
003C468E 2019-04-09 12:50:22 8.8 45 21.7
003C468E 2019-04-09 12:18:22 8.9 45 21.7
003C468E 2019-04-09 11:46:22 9.1 44 21.8
003C468E 2019-04-09 11:14:23 9.6 44 21.9
003C468E 2019-04-09 10:42:24 10.3 43 21.9
003C468E 2019-04-09 10:10:24 11.4 42 22.9
003C468E 2019-04-09 09:38:28 13 42 22.9
003C468E 2019-04-09 09:06:31 14.6 42 23
003C468E 2019-04-09 08:34:37 14.9 47 23.1
003C468E 2019-04-09 08:02:37 10.2 60 23.2
003C468E 2019-04-09 07:30:34 5.4 69 23.2
003C468E 2019-04-09 06:58:28 2.7 44 23.2
003C468E 2019-04-09 06:26:22 2.8 44 23.2
003C468E 2019-04-09 05:54:15 2.8 44 23.2
003C468E 2019-04-09 05:22:09 2.9 44 23.2
003C468E 2019-04-09 04:50:04 2.9 44 23.2
003C468E 2019-04-09 04:17:57 3.1 44 23
003C468E 2019-04-09 03:45:52 3.1 44 22.9
003C468E 2019-04-09 03:13:47 3.3 44 23.6
003C468E 2019-04-09 02:09:36 3.6 45 23.4
003C468E 2019-04-09 01:37:31 3.7 45 23.4
003C468E 2019-04-09 01:05:26 3.9 45 24
003C468E 2019-04-09 00:33:20 4.1 45 24
003C468E 2019-04-09 00:01:16 4.3 45 24
003C468E 2019-04-08 23:29:13 4.6 45 23.9
003C468E 2019-04-08 22:57:10 4.9 45 23.8
003C468E 2019-04-08 22:25:07 5.2 45 23.9
003C468E 2019-04-08 21:53:03 5.7 45 23.8
003C468E 2019-04-08 21:21:01 6.1 45 23.8
003C468E 2019-04-08 20:49:00 6.7 45 23.2
003C468E 2019-04-08 20:16:57 7.4 45 23.2
003C468E 2019-04-08 19:44:56 8.2 44 23.2
003C468E 2019-04-08 19:12:55 9.3 44 23.2
003C468E 2019-04-08 18:40:55 10.4 45 23.3
003C468E 2019-04-08 18:08:56 11.2 49 23.2
003C468E 2019-04-08 17:04:56 8.9 43 23.2
003C468E 2019-04-08 16:32:55 9.7 43 23.2
003C468E 2019-04-08 16:00:56 10.6 43 23.2
003C468E 2019-04-08 15:28:56 11.5 45 23.1
003C468E 2019-04-08 14:56:57 12.1 48 23.1
003C468E 2019-04-08 14:24:58 10.5 59 23.3
003C468E 2019-04-08 13:52:55 6.4 43 23.3
003C468E 2019-04-08 13:20:51 6.7 37 22.7
003C468E 2019-04-08 12:48:47 7.1 37 22.8
003C468E 2019-04-08 12:16:45 7.5 37 22.8
003C468E 2019-04-08 11:44:42 8 37 22.8
003C468E 2019-04-08 11:12:38 8.7 37 22
003C468E 2019-04-08 10:40:37 9.3 37 22.2
003C468E 2019-04-08 10:08:02 10.1 38 22.2
003C468E 2019-04-08 09:36:01 10.9 39 22.3
003C468E 2019-04-08 09:04:00 11.3 43 22.2
003C468E 2019-04-08 08:32:03 8.3 58 22.4
003C468E 2019-04-08 07:59:55 4.3 32 22.3
003C468E 2019-04-08 07:27:50 4.5 32 22.3
003C468E 2019-04-08 06:55:45 4.7 32 22.3
003C468E 2019-04-08 06:23:40 4.9 32 22.2
003C468E 2019-04-08 05:51:34 5.2 32 22.1
003C468E 2019-04-08 05:19:29 5.6 32 22
003C468E 2019-04-08 04:47:26 6 31 22
003C468E 2019-04-08 04:15:23 6.6 31 22
003C468E 2019-04-08 03:43:20 7.2 31 21.8
003C468E 2019-04-08 03:11:19 7.7 32 21.7
003C468E 2019-04-08 02:39:16 8.2 32 21.6
003C468E 2019-04-08 02:07:17 8.7 32 22.5
003C468E 2019-04-08 01:35:19 9.1 32 22.4
003C468E 2019-04-08 01:03:20 9.5 32 22.4
003C468E 2019-04-08 00:31:22 10 32 22.3
003C468E 2019-04-07 23:59:23 10.3 32 22.3
003C468E 2019-04-07 23:27:23 10.6 32 22.3
003C468E 2019-04-07 22:55:24 11 32 22.3
003C468E 2019-04-07 22:23:26 11.4 31 22.3
003C468E 2019-04-07 21:51:27 11.9 31 22.3
003C468E 2019-04-07 21:19:28 12.5 31 22.4
003C468E 2019-04-07 20:47:27 13.1 31 22.4
003C468E 2019-04-07 20:15:26 13.9 31 22.5
003C468E 2019-04-07 19:43:27 14.8 30 22.4
003C468E 2019-04-07 19:11:27 16 30 22.4
003C468E 2019-04-07 18:39:30 17.3 29 22.5
003C468E 2019-04-07 18:07:34 18.8 29 22.5
003C468E 2019-04-07 17:35:39 20.8 28 22.5
003C468E 2019-04-07 17:03:46 21.8 30 22.6
003C468E 2019-04-07 16:31:52 20 34 22.7
003C468E 2019-04-07 15:59:57 18.6 33 22.9
003C468E 2019-04-07 15:28:02 18.5 34 22.9
003C468E 2019-04-07 14:56:06 18.2 35 22.9
003C468E 2019-04-07 13:52:11 17.3 37 23
003C468E 2019-04-07 13:20:14 16.5 36 23.1
003C468E 2019-04-07 12:48:16 15.7 35 23.9
003C468E 2019-04-07 11:44:18 14.2 29 23.9
003C468E 2019-04-07 11:12:20 14.9 29 23.9
003C468E 2019-04-07 10:40:21 13 32 23.9
003C468E 2019-04-07 10:08:19 8.5 35 24.5
003C468E 2019-04-07 09:36:14 5.2 32 24.5
003C468E 2019-04-07 09:04:08 3.6 31 24.5
003C468E 2019-04-07 08:32:01 3 30 24.4
003C468E 2019-04-07 07:59:53 2.8 30 24.4
003C468E 2019-04-07 07:27:13 2.9 30 24.3
003C468E 2019-04-07 06:55:06 3.1 29 24.3
003C468E 2019-04-07 06:23:00 3.4 29 24.2
003C468E 2019-04-07 05:50:54 3.8 29 24.2
003C468E 2019-04-07 05:18:50 4.2 29 24
003C468E 2019-04-07 04:46:47 4.7 29 24
003C468E 2019-04-07 04:14:45 5.2 29 23.9
003C468E 2019-04-07 03:42:43 5.7 29 23.9
003C468E 2019-04-07 03:10:41 6.3 29 23.8
003C468E 2019-04-07 02:38:40 6.8 29 23.8
003C468E 2019-04-07 02:06:40 7.3 29 23.8
003C468E 2019-04-07 01:34:40 7.9 29 23.7
003C468E 2019-04-07 01:02:39 8.4 29 23.7
003C468E 2019-04-07 00:30:39 9 29 23.6
003C468E 2019-04-06 23:58:38 9.6 29 22.9
003C468E 2019-04-06 23:26:36 10.2 29 22.1
003C468E 2019-04-06 22:54:36 10.9 29 22.2
003C468E 2019-04-06 22:22:37 11.7 29 22.2
003C468E 2019-04-06 21:50:37 12.6 28 21.2
003C468E 2019-04-06 21:18:37 13.4 28 22.2
003C468E 2019-04-06 20:46:39 14.3 28 22.1
003C468E 2019-04-06 20:14:41 15.2 28 22.2
003C468E 2019-04-06 19:42:45 16.1 28 22.2
003C468E 2019-04-06 19:10:48 17.1 28 22.2
003C468E 2019-04-06 18:38:52 18 27 22.2
003C468E 2019-04-06 18:06:56 19 27 22.2
003C468E 2019-04-06 17:35:02 20.1 26 22.2
003C468E 2019-04-06 17:03:08 21.3 25 22.3
003C468E 2019-04-06 16:31:15 22.1 25 23.2
003C468E 2019-04-06 15:59:20 22.2 29 23.2
003C468E 2019-04-06 14:55:29 22.1 31 23.2
003C468E 2019-04-06 13:51:37 18.8 37 23.3
003C468E 2019-04-06 13:19:42 16.7 36 23.3
003C468E 2019-04-06 12:47:42 15.6 37 24
003C468E 2019-04-06 12:15:44 15.4 33 24
003C468E 2019-04-06 11:43:48 16 31 24
003C468E 2019-04-06 11:11:51 17 31 24
003C468E 2019-04-06 10:39:55 14.8 34 24
003C468E 2019-04-06 10:07:55 9.3 40 24.1
003C468E 2019-04-06 09:35:52 6.3 35 24.1
003C468E 2019-04-06 09:03:46 3.4 34 24.1
003C468E 2019-04-06 08:31:39 2.8 33 23.9
003C468E 2019-04-06 07:59:32 2.9 33 23.9
003C468E 2019-04-06 07:27:25 3.1 32 23.9
003C468E 2019-04-06 06:55:19 3.4 32 23.2
003C468E 2019-04-06 06:23:13 3.7 32 23.1
003C468E 2019-04-06 05:51:06 4.2 32 23
003C468E 2019-04-06 05:19:00 4.6 32 23.1
003C468E 2019-04-06 04:46:21 5.1 32 22.9
003C468E 2019-04-06 04:14:14 5.6 32 22.9
003C468E 2019-04-06 03:42:08 6.1 32 22.9
003C468E 2019-04-06 03:10:02 6.7 32 22.9
003C468E 2019-04-06 02:37:56 7.1 32 22
003C468E 2019-04-06 02:05:52 7.6 32 22
003C468E 2019-04-06 01:33:47 8.1 32 22
003C468E 2019-04-06 01:01:43 8.6 32 21.9
003C468E 2019-04-06 00:29:40 9.2 32 21.9
003C468E 2019-04-05 23:57:38 9.8 32 20.7
003C468E 2019-04-05 23:25:37 10.5 32 20.7
003C468E 2019-04-05 22:53:36 11.3 31 20.8
003C468E 2019-04-05 22:21:37 12 31 20.7
003C468E 2019-04-05 21:49:37 12.8 31 20.8
003C468E 2019-04-05 21:17:38 13.6 31 20.6
003C468E 2019-04-05 20:45:39 14.6 31 21.7
003C468E 2019-04-05 20:13:40 15.6 30 21.7
003C468E 2019-04-05 19:41:43 16.2 32 21.9
003C468E 2019-04-05 19:09:47 17.2 33 21.9
003C468E 2019-04-05 18:37:52 17.7 35 22
003C468E 2019-04-05 18:05:56 17.6 35 22
003C468E 2019-04-05 17:34:00 17.2 35 22.1
003C468E 2019-04-05 17:02:02 16.2 34 22.2
003C468E 2019-04-05 16:30:04 14.8 36 22.2
003C468E 2019-04-05 15:58:05 11.5 39 22.2
003C468E 2019-04-05 15:26:04 11.2 36 22.4
003C468E 2019-04-05 14:54:04 11.4 36 22.4
003C468E 2019-04-05 14:22:02 11.7 36 22.4
003C468E 2019-04-05 13:50:01 12.2 36 22.4
003C468E 2019-04-05 13:18:00 12.5 36 22.5
003C468E 2019-04-05 12:46:01 12.8 36 22.5
003C468E 2019-04-05 12:14:01 13.3 36 22.5
003C468E 2019-04-05 11:42:01 13.8 36 23.4
003C468E 2019-04-05 11:10:02 14 37 23.4
003C468E 2019-04-05 10:38:04 12.9 39 23.5
003C468E 2019-04-05 10:06:05 11.2 41 24.1
003C468E 2019-04-05 09:34:04 10.1 42 24.1
003C468E 2019-04-05 09:02:01 9.1 45 24.1
003C468E 2019-04-05 07:57:48 2.3 34 24.1
003C468E 2019-04-05 07:25:39 2.5 33 24.1
003C468E 2019-04-05 06:53:31 2.7 33 23.5
003C468E 2019-04-05 06:21:22 3 33 23.4
003C468E 2019-04-05 05:49:13 3.4 33 23.3
003C468E 2019-04-05 05:17:05 3.8 33 23.3
003C468E 2019-04-05 04:44:57 4.2 33 23.3
003C468E 2019-04-05 04:12:50 4.7 33 23.3
003C468E 2019-04-05 03:40:45 5.2 33 23.2
003C468E 2019-04-05 03:08:39 5.7 33 23.2
003C468E 2019-04-05 02:36:35 6.3 33 23.8
003C468E 2019-04-05 02:03:54 6.8 33 23.7
003C468E 2019-04-05 01:31:50 7.4 33 23.7
003C468E 2019-04-05 00:59:47 7.9 33 23.7
003C468E 2019-04-05 00:27:45 8.6 33 23.6
003C468E 2019-04-04 23:55:44 9.2 33 23.6
003C468E 2019-04-04 23:23:44 9.9 33 23.6
003C468E 2019-04-04 22:51:43 10.6 33 24.2
003C468E 2019-04-04 22:19:44 11.3 33 23.6
003C468E 2019-04-04 21:47:44 12 32 23.6
003C468E 2019-04-04 21:15:46 12.7 32 24.2
003C468E 2019-04-04 20:43:48 13.4 32 23.6
003C468E 2019-04-04 20:11:49 14.1 32 23.6
003C468E 2019-04-04 19:39:50 14.8 32 23.7
003C468E 2019-04-04 19:07:52 15.3 33 23.7
003C468E 2019-04-04 18:35:55 15.5 33 23.7
003C468E 2019-04-04 18:03:57 14.9 35 23.7
003C468E 2019-04-04 17:32:01 13.2 37 23.9
003C468E 2019-04-04 16:28:04 10.4 34 23.9
003C468E 2019-04-04 15:56:05 10.4 34 24.5
003C468E 2019-04-04 15:24:05 10.5 34 24.5
003C468E 2019-04-04 14:52:04 10.6 34 24.5
003C468E 2019-04-04 14:20:03 10.7 33 24.6
003C468E 2019-04-04 13:48:02 11.1 33 24.7
003C468E 2019-04-04 13:16:00 11.7 32 24.1
003C468E 2019-04-04 12:44:00 12.6 32 24.2
003C468E 2019-04-04 12:12:00 14 31 24.2
003C468E 2019-04-04 11:40:02 15.7 31 24.3
003C468E 2019-04-04 11:08:05 17.1 32 24.4
003C468E 2019-04-04 10:36:09 17.1 33 24.4
003C468E 2019-04-04 10:04:12 15.1 36 24.4
003C468E 2019-04-04 09:32:14 13.4 38 24.9
003C468E 2019-04-04 09:00:16 12.2 40 24.5
003C468E 2019-04-04 07:56:13 4.8 34 24.4
003C468E 2019-04-04 07:24:10 4.9 34 24.3
003C468E 2019-04-04 06:52:06 5.1 34 23.6
003C468E 2019-04-04 06:20:02 5.3 34 23.5
003C468E 2019-04-04 05:47:59 5.6 34 23.4
003C468E 2019-04-04 05:15:56 5.9 34 23.3
003C468E 2019-04-04 04:43:53 6.1 34 23.2
003C468E 2019-04-04 04:11:52 6.4 34 23.2
003C468E 2019-04-04 03:39:48 6.8 33 23.2
003C468E 2019-04-04 03:07:46 7.1 33 23.2
003C468E 2019-04-04 02:35:43 7.6 33 23.2
003C468E 2019-04-04 02:03:38 8 33 22.3
003C468E 2019-04-04 01:31:36 8.5 33 22.3
003C468E 2019-04-04 00:59:34 9 33 22.2
003C468E 2019-04-04 00:27:35 9.5 33 22.2
003C468E 2019-04-03 23:55:36 10.1 33 22.1
003C468E 2019-04-03 23:23:05 10.7 33 22.1
003C468E 2019-04-03 22:51:08 11.3 33 22.1
003C468E 2019-04-03 22:19:11 12 32 22.8
003C468E 2019-04-03 21:47:15 12.9 32 22.7
003C468E 2019-04-03 21:15:20 13.9 32 22.8
003C468E 2019-04-03 20:43:24 15 31 22.9
003C468E 2019-04-03 20:11:28 16.2 31 22.1
003C468E 2019-04-03 19:39:32 16.7 32 22.9
003C468E 2019-04-03 19:07:38 15.8 31 23.1
003C468E 2019-04-03 18:35:42 16.4 30 23.2
003C468E 2019-04-03 18:03:47 15.8 31 23.9
003C468E 2019-04-03 17:31:52 15.3 32 24
003C468E 2019-04-03 16:59:55 16 30 24.6
003C468E 2019-04-03 16:28:00 17.3 29 24.7
003C468E 2019-04-03 15:56:04 18.7 29 24.7
003C468E 2019-04-03 15:24:08 20 29 24.7
003C468E 2019-04-03 14:52:15 20 26 24.7
003C468E 2019-04-03 11:40:51 16.6 35 24.7
003C468E 2019-04-03 11:08:56 15.3 36 24.7
003C468E 2019-04-03 10:37:00 12.2 41 24.7
003C468E 2019-04-03 10:04:58 9.8 40 24.8
003C468E 2019-04-03 09:32:57 10.8 40 24.7
003C468E 2019-04-03 09:00:56 11.1 43 24.7
003C468E 2019-04-03 07:56:52 2.5 44 24.7
003C468E 2019-04-03 07:24:45 2.4 41 24.7
003C468E 2019-04-03 06:52:39 2.5 41 24.7
003C468E 2019-04-03 06:20:33 2.6 41 24.7
003C468E 2019-04-03 05:48:28 2.8 41 24.1
003C468E 2019-04-03 05:16:23 3 41 24.1
003C468E 2019-04-03 04:44:19 3.1 41 24
003C468E 2019-04-03 04:12:16 3.2 41 23.9
003C468E 2019-04-03 03:40:11 3.4 41 23.8
003C468E 2019-04-03 03:08:07 3.6 41 23.1
003C468E 2019-04-03 02:36:04 3.8 41 23.1
003C468E 2019-04-03 02:04:00 4 41 23
003C468E 2019-04-03 01:31:56 4.3 41 22.1
003C468E 2019-04-03 00:59:54 4.8 40 22
003C468E 2019-04-03 00:27:52 5.3 40 20.8
003C468E 2019-04-02 23:55:49 5.7 40 20.7
003C468E 2019-04-02 23:23:47 6.2 40 20.7
003C468E 2019-04-02 22:51:45 6.9 40 21.7
003C468E 2019-04-02 22:19:44 7.5 40 21.7
003C468E 2019-04-02 21:47:42 8.2 40 21.7
003C468E 2019-04-02 21:15:41 8.9 40 21.7
003C468E 2019-04-02 20:43:07 9.6 40 21.9
003C468E 2019-04-02 20:11:05 10.2 39 21.9
003C468E 2019-04-02 19:39:02 10.9 39 22
003C468E 2019-04-02 19:06:59 11.6 39 22.1
003C468E 2019-04-02 18:34:58 12.3 39 22
003C468E 2019-04-02 18:02:57 12.5 41 22
003C468E 2019-04-02 17:30:57 11.1 42 22
003C468E 2019-04-02 16:26:48 6.2 46 22.2
003C468E 2019-04-02 15:54:45 6.2 47 22.2
003C468E 2019-04-02 15:22:40 6.2 47 22.3
003C468E 2019-04-02 14:50:35 6.2 47 22.4
003C468E 2019-04-02 14:18:31 6.2 47 22.4
003C468E 2019-04-02 13:46:27 6.3 46 22.4
003C468E 2019-04-02 13:14:23 6.5 46 23.2
003C468E 2019-04-02 12:42:19 6.6 46 23.3
003C468E 2019-04-02 12:10:15 6.7 46 23.3
003C468E 2019-04-02 11:38:12 6.8 46 24
003C468E 2019-04-02 11:06:09 7 45 24.1
003C468E 2019-04-02 10:34:07 7.3 45 24.2
003C468E 2019-04-02 10:02:05 7.6 46 24.2
003C468E 2019-04-02 09:30:02 7.8 47 23.5
003C468E 2019-04-02 08:58:01 7 54 23.5
003C468E 2019-04-02 07:53:51 1.7 40 23.5
003C468E 2019-04-02 07:21:42 1.7 39 23.5
003C468E 2019-04-02 06:49:34 1.8 39 23.5
003C468E 2019-04-02 06:17:25 2 39 23.4
003C468E 2019-04-02 05:45:18 2.2 39 23.3
003C468E 2019-04-02 05:13:10 2.4 39 23.9
003C468E 2019-04-02 04:41:02 2.6 39 23.9
003C468E 2019-04-02 04:08:55 2.9 39 23.8
003C468E 2019-04-02 03:36:47 3.2 38 23.9
003C468E 2019-04-02 03:04:40 3.5 38 23.9
003C468E 2019-04-02 02:32:34 3.9 38 23.8
003C468E 2019-04-02 02:00:28 4.3 38 23.7
003C468E 2019-04-02 01:28:22 4.7 38 23.7
003C468E 2019-04-02 00:56:16 5.2 38 23.6
003C468E 2019-04-02 00:24:10 5.8 37 23.6
003C468E 2019-04-01 23:52:05 6.4 37 23.6
003C468E 2019-04-01 23:20:02 7.1 37 22.8
003C468E 2019-04-01 22:47:59 7.9 36 22.9
003C468E 2019-04-01 22:15:56 8.8 36 22.8
003C468E 2019-04-01 21:43:54 9.7 36 22
003C468E 2019-04-01 21:11:52 10.7 35 22
003C468E 2019-04-01 20:39:50 11.8 35 22
003C468E 2019-04-01 20:07:49 13 34 22.1
003C468E 2019-04-01 19:35:49 14.3 33 22.1
003C468E 2019-04-01 19:03:50 15 35 22.2
003C468E 2019-04-01 18:31:51 15 36 22.2
003C468E 2019-04-01 17:59:20 14.4 36 22.3
003C468E 2019-04-01 16:55:18 9.4 41 22.4
003C468E 2019-04-01 16:23:14 6.9 46 22.4
003C468E 2019-04-01 15:51:10 6.9 46 22.4
003C468E 2019-04-01 15:19:05 6.9 46 22.5
003C468E 2019-04-01 14:47:00 7 45 22.6
003C468E 2019-04-01 14:14:55 7.1 45 22.5
003C468E 2019-04-01 13:42:50 7.5 44 22.6
003C468E 2019-04-01 13:10:46 8.1 44 22.6
003C468E 2019-04-01 12:38:42 8.9 43 22.6
003C468E 2019-04-01 12:06:40 10.1 43 22.6
003C468E 2019-04-01 11:34:38 11.3 43 22.7
003C468E 2019-04-01 11:02:37 11.8 45 22.8
003C468E 2019-04-01 10:30:36 10.6 49 22.8
003C468E 2019-04-01 09:58:33 8.6 53 22.8
003C468E 2019-04-01 09:26:31 7.4 55 22.8
003C468E 2019-04-01 08:54:29 5.9 60 22.8
003C468E 2019-04-01 08:22:23 1.1 64 22.8
003C468E 2019-04-01 07:50:15 0.6 50 22.7
003C468E 2019-04-01 07:18:06 0.8 50 22.7
003C468E 2019-04-01 06:45:56 1 50 22.6
003C468E 2019-04-01 06:13:49 1.2 50 22.6
003C468E 2019-04-01 05:41:41 1.4 50 22.6
003C468E 2019-04-01 05:09:33 1.6 50 22.6
003C468E 2019-04-01 04:37:25 1.8 50 22.5
003C468E 2019-04-01 04:05:18 2 50 22.5
003C468E 2019-04-01 03:33:11 2.2 50 22.5
003C468E 2019-04-01 03:01:04 2.4 50 22.4
003C468E 2019-04-01 02:28:57 2.7 50 21.5
003C468E 2019-04-01 01:56:51 2.9 50 21.4
003C468E 2019-04-01 01:24:45 3.2 51 21.3
003C468E 2019-04-01 00:52:38 3.4 51 21.3
003C468E 2019-04-01 00:20:32 3.7 51 21.3
003C468E 2019-03-31 23:48:27 3.9 51 21.4
003C468E 2019-03-31 23:16:21 4.3 50 21.4
003C468E 2019-03-31 22:44:15 4.7 50 21.5
003C468E 2019-03-31 22:12:10 5.2 50 21.4
003C468E 2019-03-31 21:40:05 5.9 50 21.5
003C468E 2019-03-31 21:08:00 6.6 50 21.4
003C468E 2019-03-31 20:35:57 7.4 50 21.5
003C468E 2019-03-31 20:03:55 8.4 51 21.6
003C468E 2019-03-31 19:31:53 9.3 51 21.6
003C468E 2019-03-31 18:59:52 10.3 51 21.8
003C468E 2019-03-31 18:27:50 11.2 52 21.8
003C468E 2019-03-31 17:55:48 11.8 54 21.9
003C468E 2019-03-31 17:23:47 11.5 59 21.9
003C468E 2019-03-31 16:51:46 10.4 58 21.8
003C468E 2019-03-31 16:19:45 9.5 59 21.8
003C468E 2019-03-31 15:47:43 8.2 51 21.8
003C468E 2019-03-31 15:15:06 8.7 52 21.9
003C468E 2019-03-31 14:43:02 8.7 57 22
003C468E 2019-03-31 14:10:59 6.2 65 22
003C468E 2019-03-31 13:38:53 5.2 47 22.1
003C468E 2019-03-31 13:06:47 5.1 47 22.1
003C468E 2019-03-31 12:34:41 4.9 47 22.1
003C468E 2019-03-31 12:02:38 4.8 47 22.1
003C468E 2019-03-31 11:30:33 4.6 46 22
003C468E 2019-03-31 10:58:28 4.5 46 22.1
003C468E 2019-03-31 10:26:23 4.4 46 22.1
003C468E 2019-03-31 09:54:18 4.3 46 22.1
003C468E 2019-03-31 09:22:12 4.1 46 22.2
003C468E 2019-03-31 08:50:07 4.2 45 22.3
003C468E 2019-03-31 08:18:02 4.3 45 22.3
003C468E 2019-03-31 07:45:57 4.4 45 22.3
003C468E 2019-03-31 07:13:52 4.6 45 22.3
003C468E 2019-03-31 06:41:46 4.7 45 22.3
003C468E 2019-03-31 06:09:40 4.8 45 22
003C468E 2019-03-31 05:37:34 4.9 45 22
003C468E 2019-03-31 05:05:29 5 45 22
003C468E 2019-03-31 04:33:23 5.2 45 22.1
003C468E 2019-03-31 04:01:18 5.4 45 22.1
003C468E 2019-03-31 02:29:14 5.6 45 22.1
003C468E 2019-03-31 01:57:09 5.8 45 22.1
003C468E 2019-03-31 01:25:04 6 45 22
003C468E 2019-03-31 00:53:00 6.3 45 21.9
003C468E 2019-03-31 00:20:55 6.6 45 22
003C468E 2019-03-30 23:48:51 6.9 45 22
003C468E 2019-03-30 23:16:47 7.3 44 21.9
003C468E 2019-03-30 22:44:44 7.8 44 22
003C468E 2019-03-30 22:12:40 8.3 44 22.9
003C468E 2019-03-30 21:40:37 8.9 44 22.9
003C468E 2019-03-30 21:08:36 9.5 44 22.9
003C468E 2019-03-30 20:36:33 10.2 44 22.8
003C468E 2019-03-30 20:04:31 11 43 22.9
003C468E 2019-03-30 19:32:30 11.8 43 22.8
003C468E 2019-03-30 19:00:30 12.7 43 22.8
003C468E 2019-03-30 18:28:31 13.8 42 22.7
003C468E 2019-03-30 17:56:33 14.9 42 23.5
003C468E 2019-03-30 17:24:37 16.3 42 23.4
003C468E 2019-03-30 16:52:40 17.5 42 23.4
003C468E 2019-03-30 14:13:00 16.1 51 23.4
003C468E 2019-03-30 13:41:02 14.4 53 23.5
003C468E 2019-03-30 13:09:03 13.9 52 23.5
003C468E 2019-03-30 12:37:04 13.8 53 23.5
003C468E 2019-03-30 12:05:06 13.7 53 24.1
003C468E 2019-03-30 11:32:25 13.3 53 24.1
003C468E 2019-03-30 11:00:27 12.9 52 24.1
003C468E 2019-03-30 10:28:28 12.7 52 24.1
003C468E 2019-03-30 09:56:28 12.1 55 24.1
003C468E 2019-03-30 09:24:27 10 60 24.1
003C468E 2019-03-30 08:52:24 5.8 49 24.1
003C468E 2019-03-30 08:20:18 5.2 47 24
003C468E 2019-03-30 07:48:12 4.7 46 24
003C468E 2019-03-30 07:16:05 4.8 46 23.8
003C468E 2019-03-30 06:43:59 5 45 23.1
003C468E 2019-03-30 06:11:52 5.3 45 23
003C468E 2019-03-30 05:39:45 5.5 46 23
003C468E 2019-03-30 05:07:39 5.8 46 23
003C468E 2019-03-30 04:35:34 6 46 23
003C468E 2019-03-30 04:03:28 6.2 46 23
003C468E 2019-03-30 03:31:21 6.4 46 22.9
003C468E 2019-03-30 02:59:15 6.6 46 22.9
003C468E 2019-03-30 02:27:09 6.9 45 22
003C468E 2019-03-30 01:55:04 7.3 45 21.8
003C468E 2019-03-30 01:23:00 7.7 45 21.7
003C468E 2019-03-30 00:50:57 8.1 45 21.6
003C468E 2019-03-30 00:18:55 8.6 45 21.6
003C468E 2019-03-29 23:46:53 9.1 45 21.5
003C468E 2019-03-29 23:14:51 9.5 45 21.4
003C468E 2019-03-29 22:42:50 10 45 20.1
003C468E 2019-03-29 22:10:50 10.6 45 19.9
003C468E 2019-03-29 21:38:51 11.2 45 20
003C468E 2019-03-29 21:06:51 11.8 45 20.2
003C468E 2019-03-29 20:34:51 12.5 45 20.3
003C468E 2019-03-29 20:02:53 13.4 45 20.3
003C468E 2019-03-29 19:30:56 13.3 47 20.3
003C468E 2019-03-29 18:58:58 14.4 41 20.4
003C468E 2019-03-29 18:27:02 15.7 42 20.6
003C468E 2019-03-29 17:55:07 16.8 42 20.8
003C468E 2019-03-29 17:23:11 17.4 42 22
003C468E 2019-03-29 16:51:16 17.4 43 22.1
003C468E 2019-03-29 15:47:25 17.4 43 22.2
003C468E 2019-03-29 15:15:29 17.5 44 22.2
003C468E 2019-03-29 14:43:31 16.7 46 22.2
003C468E 2019-03-29 14:11:34 16.1 48 22.2
003C468E 2019-03-29 13:39:37 14 52 22.3
003C468E 2019-03-29 13:07:38 12.7 46 22.4
003C468E 2019-03-29 12:35:39 12.9 46 22.5
003C468E 2019-03-29 12:03:40 13.4 45 22.6
003C468E 2019-03-29 11:31:43 14.1 44 22.7
003C468E 2019-03-29 10:59:46 15.1 44 22.8
003C468E 2019-03-29 10:27:51 16.1 45 22.8
003C468E 2019-03-29 09:55:56 16.3 48 22.9
003C468E 2019-03-29 09:24:00 14.9 52 22.9
003C468E 2019-03-29 08:51:28 12.3 59 23.1
003C468E 2019-03-29 07:47:22 4 47 23.8
003C468E 2019-03-29 07:15:15 4 46 23.7
003C468E 2019-03-29 06:43:07 4.1 46 23.6
003C468E 2019-03-29 06:11:00 4.3 46 23.6
003C468E 2019-03-29 05:38:53 4.5 46 23.6
003C468E 2019-03-29 05:06:47 4.8 46 23.5
003C468E 2019-03-29 04:34:40 5.1 46 23.4
003C468E 2019-03-29 04:02:34 5.3 46 23.3
003C468E 2019-03-29 03:30:28 5.6 46 22.6
003C468E 2019-03-29 02:58:22 5.8 46 22.5
003C468E 2019-03-29 02:26:16 6 46 22.5
003C468E 2019-03-29 01:54:10 6.2 46 22.4
003C468E 2019-03-29 01:22:05 6.5 46 22.3
003C468E 2019-03-29 00:50:00 6.7 46 22.3
003C468E 2019-03-29 00:17:56 6.9 46 22.1
003C468E 2019-03-28 23:45:53 7.2 46 22.1
003C468E 2019-03-28 23:13:50 7.5 45 22
003C468E 2019-03-28 22:41:48 7.9 45 21.9
003C468E 2019-03-28 22:09:47 8.3 45 21.7
003C468E 2019-03-28 21:37:45 8.8 45 21.7
003C468E 2019-03-28 21:05:45 9.4 45 21.7
003C468E 2019-03-28 20:33:45 10.1 44 21.7
003C468E 2019-03-28 20:01:44 10.9 44 21.7
003C468E 2019-03-28 19:29:44 11.8 44 21.7
003C468E 2019-03-28 18:57:43 12.7 44 21.6
003C468E 2019-03-28 18:25:43 13.6 45 20.5
003C468E 2019-03-28 17:53:44 13.3 47 20.6
003C468E 2019-03-28 17:21:44 13.1 47 20.7
003C468E 2019-03-28 16:49:44 12.5 51 20.7
003C468E 2019-03-28 16:17:45 10.8 47 20.9
003C468E 2019-03-28 15:45:45 10.8 47 21.1
003C468E 2019-03-28 15:13:44 11 47 21.2
003C468E 2019-03-28 14:41:43 11.2 47 21.3
003C468E 2019-03-28 14:09:42 11.3 48 21.3
003C468E 2019-03-28 13:37:41 11.1 48 21.5
003C468E 2019-03-28 13:05:40 10.8 47 21.7
003C468E 2019-03-28 12:33:39 10.6 47 22.6
003C468E 2019-03-28 12:01:41 10.4 46 22.8
003C468E 2019-03-28 11:29:38 10.7 46 22.9
003C468E 2019-03-28 10:57:36 11.2 45 22.9
003C468E 2019-03-28 10:25:34 11.7 48 22.9
003C468E 2019-03-28 09:53:31 9.4 59 23.1
003C468E 2019-03-28 09:21:28 6.4 60 23.2
003C468E 2019-03-28 08:49:20 1.9 45 23.2
003C468E 2019-03-28 08:17:09 0.9 43 23.2
003C468E 2019-03-28 07:44:58 0.7 43 23.1
003C468E 2019-03-28 07:12:47 0.7 43 23.2
003C468E 2019-03-28 06:40:37 0.8 42 23.2
003C468E 2019-03-28 06:07:53 1 42 23.2
003C468E 2019-03-28 05:35:42 1.3 42 23.8
003C468E 2019-03-28 05:03:31 1.6 42 23.9
003C468E 2019-03-28 04:31:22 1.8 42 23.9
003C468E 2019-03-28 03:59:11 2.1 42 23.8
003C468E 2019-03-28 03:27:01 2.4 42 23.8
003C468E 2019-03-28 02:54:51 2.7 42 23.8
003C468E 2019-03-28 02:22:43 3 42 24.4
003C468E 2019-03-28 01:50:33 3.4 42 24.9
003C468E 2019-03-28 01:18:25 3.7 42 25.3
003C468E 2019-03-28 00:46:17 4 42 25.7
003C468E 2019-03-28 00:14:10 4.3 42 25.2
003C468E 2019-03-27 23:42:03 4.5 42 25.2
003C468E 2019-03-27 23:09:58 4.8 42 25.1
003C468E 2019-03-27 22:37:51 5.1 41 25
003C468E 2019-03-27 22:05:47 5.5 41 25.1
003C468E 2019-03-27 21:33:43 5.9 41 25.1
003C468E 2019-03-27 21:01:39 6.5 41 25
003C468E 2019-03-27 20:29:36 7.2 40 25.1
003C468E 2019-03-27 19:57:31 8.1 40 25.1
003C468E 2019-03-27 19:25:28 9.1 40 25.1
003C468E 2019-03-27 18:53:26 10 41 25.1
003C468E 2019-03-27 18:21:25 9.2 44 25.1
003C468E 2019-03-27 17:49:22 7.9 39 25.1
003C468E 2019-03-27 17:17:17 8.2 40 25
003C468E 2019-03-27 16:13:08 4.9 41 25.1
003C468E 2019-03-27 15:41:01 4.8 41 24.6
003C468E 2019-03-27 15:08:53 4.7 40 24.5
003C468E 2019-03-27 14:36:45 5 40 24.5
003C468E 2019-03-27 14:04:38 5.3 40 24.5
003C468E 2019-03-27 13:32:32 5.8 39 24.6
003C468E 2019-03-27 13:00:25 6.4 39 24.5
003C468E 2019-03-27 12:28:20 7.3 38 24
003C468E 2019-03-27 11:56:16 8.4 38 23.4
003C468E 2019-03-27 11:24:13 9.4 39 22.7
003C468E 2019-03-27 10:52:09 10.2 39 21.8
003C468E 2019-03-27 10:20:06 11 40 21.9
003C468E 2019-03-27 09:48:05 10.8 42 22
003C468E 2019-03-27 09:16:04 9.2 46 22.1
003C468E 2019-03-27 08:44:00 6.1 52 22.1
003C468E 2019-03-27 08:11:53 -1 56 22.9
003C468E 2019-03-27 07:39:41 -2.4 39 23.6
003C468E 2019-03-27 07:07:29 -2.3 39 23.6
003C468E 2019-03-27 06:35:18 -2.1 39 23.6
003C468E 2019-03-27 06:03:07 -1.8 39 23.5
003C468E 2019-03-27 05:30:57 -1.5 39 23.5
003C468E 2019-03-27 04:58:47 -1.2 39 23.4
003C468E 2019-03-27 04:26:36 -0.9 39 23.4
003C468E 2019-03-27 03:54:26 -0.5 38 23.4
003C468E 2019-03-27 03:21:43 -0.2 38 23.3
003C468E 2019-03-27 02:49:33 0.2 38 23.2
003C468E 2019-03-27 02:17:24 0.5 38 23.2
003C468E 2019-03-27 01:45:14 0.9 38 23.2
003C468E 2019-03-27 01:13:06 1.3 38 23.1
003C468E 2019-03-27 00:40:58 1.7 38 23
003C468E 2019-03-27 00:08:50 2.1 38 23
003C468E 2019-03-26 23:36:44 2.6 38 22.8
003C468E 2019-03-26 23:04:37 3 38 22.7
003C468E 2019-03-26 22:32:29 3.6 38 22.6
003C468E 2019-03-26 22:00:23 4.1 38 22.6
003C468E 2019-03-26 21:28:18 4.6 38 22.5
003C468E 2019-03-26 20:56:13 5.1 38 22.5
003C468E 2019-03-26 20:24:09 5.7 37 23.3
003C468E 2019-03-26 19:52:06 6.2 37 23.3
003C468E 2019-03-26 19:20:03 6.8 37 22.5
003C468E 2019-03-26 18:48:01 7.4 37 21.6
003C468E 2019-03-26 18:15:59 7.9 37 21.5
003C468E 2019-03-26 17:43:57 8.1 38 21.5
003C468E 2019-03-26 17:11:54 6.8 43 22.5
003C468E 2019-03-26 16:39:49 3.6 39 22.5
003C468E 2019-03-26 16:07:42 3.6 39 22.5
003C468E 2019-03-26 15:35:36 3.7 39 22.5
003C468E 2019-03-26 15:03:30 3.7 39 22.5
003C468E 2019-03-26 14:31:26 3.8 39 22.6
003C468E 2019-03-26 13:59:21 4 38 22.6
003C468E 2019-03-26 13:27:17 4.3 38 22.7
003C468E 2019-03-26 12:55:10 4.7 38 22.7
003C468E 2019-03-26 12:23:05 5.2 38 23.4
003C468E 2019-03-26 11:50:59 6 37 23.5
003C468E 2019-03-26 11:18:55 7.1 37 23.5
003C468E 2019-03-26 10:46:52 8.6 37 23.6
003C468E 2019-03-26 10:14:49 10 40 23.7
003C468E 2019-03-26 09:42:47 10.3 44 23.8
003C468E 2019-03-26 09:10:45 9.1 50 23.9
003C468E 2019-03-26 08:38:42 5.4 60 23.9
003C468E 2019-03-26 08:06:33 -1.6 50 23.9
003C468E 2019-03-26 07:34:19 -1.8 44 24
003C468E 2019-03-26 07:02:05 -1.7 44 23.4
003C468E 2019-03-26 06:29:52 -1.5 44 23.4
003C468E 2019-03-26 05:57:40 -1.2 44 23.3
003C468E 2019-03-26 05:25:27 -1 44 23.3
003C468E 2019-03-26 04:53:15 -0.7 44 23.3
003C468E 2019-03-26 04:21:05 -0.4 44 23.3
003C468E 2019-03-26 03:48:54 -0.2 44 22.5
003C468E 2019-03-26 03:16:44 0.1 44 22.4
003C468E 2019-03-26 02:44:34 0.3 44 22.4
003C468E 2019-03-26 02:12:22 0.5 44 22.4
003C468E 2019-03-26 01:40:12 0.7 44 22.3
003C468E 2019-03-26 01:08:00 1 44 22.3
003C468E 2019-03-26 00:35:17 1.3 44 22.3
003C468E 2019-03-26 00:03:07 1.7 44 22.4
003C468E 2019-03-25 23:30:57 2.1 44 21.3
003C468E 2019-03-25 22:58:47 2.6 44 21.3
003C468E 2019-03-25 22:26:38 3.1 44 21.2
003C468E 2019-03-25 21:54:28 3.7 44 21
003C468E 2019-03-25 21:22:19 4.4 44 21
003C468E 2019-03-25 20:50:11 5.1 43 21.1
003C468E 2019-03-25 20:18:03 6 43 21.1
003C468E 2019-03-25 19:45:58 6.8 43 20.9
003C468E 2019-03-25 19:13:53 7.8 43 20.9
003C468E 2019-03-25 18:41:49 8.7 43 21
003C468E 2019-03-25 18:09:47 9.6 44 20.8
003C468E 2019-03-25 17:37:45 10.3 45 20.9
003C468E 2019-03-25 17:05:44 10 48 21
003C468E 2019-03-25 16:33:42 6.6 55 21.1
003C468E 2019-03-25 16:01:37 6.2 45 21.2
003C468E 2019-03-25 15:29:33 6.5 45 21.2
003C468E 2019-03-25 14:57:27 6.7 45 21.2
003C468E 2019-03-25 14:25:23 7.1 44 21.3
003C468E 2019-03-25 13:53:21 7.7 44 21.2
003C468E 2019-03-25 13:21:18 8.2 45 21.2
003C468E 2019-03-25 12:49:15 8.6 45 22.3
003C468E 2019-03-25 12:17:12 8.8 45 22.3
003C468E 2019-03-25 11:45:09 9 46 22.4
003C468E 2019-03-25 11:13:06 9 46 22.3
003C468E 2019-03-25 10:41:04 9 45 23.1
003C468E 2019-03-25 10:09:04 9.4 45 23.2
003C468E 2019-03-25 09:37:04 9.9 46 23.2
003C468E 2019-03-25 09:05:02 9.5 51 23.9
003C468E 2019-03-25 08:33:00 5.2 71 24
003C468E 2019-03-25 08:00:52 0.6 42 24
003C468E 2019-03-25 07:28:43 0.6 41 24
003C468E 2019-03-25 06:56:34 0.7 41 23.9
003C468E 2019-03-25 06:24:24 0.8 41 23.9
003C468E 2019-03-25 05:52:15 1.1 41 23.9
003C468E 2019-03-25 05:20:06 1.4 41 23.8
003C468E 2019-03-25 04:47:56 1.7 41 23.9
003C468E 2019-03-25 04:15:48 2 40 23.7
003C468E 2019-03-25 03:43:39 2.4 40 23.7
003C468E 2019-03-25 03:11:32 2.7 40 23.6
003C468E 2019-03-25 02:39:26 3.1 40 23.5
003C468E 2019-03-25 02:07:20 3.5 40 23.6
003C468E 2019-03-25 01:35:12 3.8 40 23.5
003C468E 2019-03-25 01:03:06 4.3 40 23.5
003C468E 2019-03-25 00:31:02 4.7 40 23.6
003C468E 2019-03-24 23:58:56 5.2 40 23.5
003C468E 2019-03-24 23:26:52 5.7 40 22.8
003C468E 2019-03-24 22:54:48 6.2 39 22.8
003C468E 2019-03-24 22:22:45 6.8 39 22.7
003C468E 2019-03-24 21:50:09 7.5 39 22.1
003C468E 2019-03-24 21:18:06 8.2 39 22.2
003C468E 2019-03-24 20:46:04 8.9 38 22.2
003C468E 2019-03-24 20:14:03 9.7 38 21.3
003C468E 2019-03-24 19:42:01 10.5 37 21.3
003C468E 2019-03-24 19:10:00 11.4 37 21.2
003C468E 2019-03-24 18:37:59 12.4 36 21.2
003C468E 2019-03-24 18:05:59 13.5 36 21.3
003C468E 2019-03-24 17:34:02 14.7 35 21.5
003C468E 2019-03-24 17:02:04 16 34 21.6
003C468E 2019-03-24 16:30:07 17 33 21.6
003C468E 2019-03-24 15:58:10 17.3 35 21.7
003C468E 2019-03-24 15:26:13 17.2 36 21.8
003C468E 2019-03-24 14:54:17 15.9 42 22
003C468E 2019-03-24 14:22:19 15.2 44 22.9
003C468E 2019-03-24 13:50:21 14.7 44 23
003C468E 2019-03-24 12:46:23 15.2 43 23
003C468E 2019-03-24 11:42:26 13.5 46 23
003C468E 2019-03-24 11:10:26 11 51 23.1
003C468E 2019-03-24 10:38:25 11.1 51 23.2
003C468E 2019-03-24 10:06:24 12.3 51 23.3
003C468E 2019-03-24 09:34:23 8.2 59 23.3
003C468E 2019-03-24 09:02:17 2.9 61 23.4
003C468E 2019-03-24 08:30:07 1.4 58 23.4
003C468E 2019-03-24 07:57:57 1.2 57 23.3
003C468E 2019-03-24 07:25:46 1.2 57 23.3
003C468E 2019-03-24 06:53:36 1.3 57 23.2
003C468E 2019-03-24 06:21:26 1.4 57 23.2
003C468E 2019-03-24 05:49:17 1.6 57 23.2
003C468E 2019-03-24 05:17:06 1.8 57 23.2
003C468E 2019-03-24 04:44:57 1.9 57 23.2
003C468E 2019-03-24 04:12:49 2 57 23.1
003C468E 2019-03-24 03:40:40 2.2 57 23.1
003C468E 2019-03-24 03:08:32 2.4 57 23.1
003C468E 2019-03-24 02:36:23 2.6 57 23.1
003C468E 2019-03-24 02:04:15 2.8 57 23.1
003C468E 2019-03-24 01:32:07 3.1 57 23.1
003C468E 2019-03-24 00:59:59 3.4 57 23.1
003C468E 2019-03-24 00:27:51 3.8 57 23.1
003C468E 2019-03-23 23:55:45 4.1 57 22.4
003C468E 2019-03-23 23:23:39 4.6 57 22.3
003C468E 2019-03-23 22:51:33 5 57 22.3
003C468E 2019-03-23 22:19:27 5.4 57 22.3
003C468E 2019-03-23 21:47:23 5.9 57 22.2
003C468E 2019-03-23 21:15:17 6.4 57 22.3
003C468E 2019-03-23 20:43:12 6.9 57 22.2
003C468E 2019-03-23 20:11:08 7.5 57 22.1
003C468E 2019-03-23 19:39:04 8.2 57 22.1
003C468E 2019-03-23 19:06:29 8.9 56 22.1
003C468E 2019-03-23 18:34:26 9.8 56 22.3
003C468E 2019-03-23 18:02:22 10.7 56 22.3
003C468E 2019-03-23 17:30:19 11.8 56 22.3
003C468E 2019-03-23 16:58:16 12.7 58 22.4
003C468E 2019-03-23 16:26:13 12.4 66 22.4
003C468E 2019-03-23 14:17:51 3 55 22.6
003C468E 2019-03-23 13:45:42 2.9 48 22.6
003C468E 2019-03-23 13:13:31 2.9 48 22.6
003C468E 2019-03-23 12:41:21 2.9 48 22.5
003C468E 2019-03-23 12:09:11 2.8 48 22.5
003C468E 2019-03-23 11:37:02 2.7 48 22.6
003C468E 2019-03-23 11:04:52 2.7 48 22.7
003C468E 2019-03-23 10:32:41 2.5 48 22.7
003C468E 2019-03-23 10:00:31 2.4 47 22.6
003C468E 2019-03-23 09:28:21 2.2 47 22.6
003C468E 2019-03-23 08:56:10 2.1 47 22.6
003C468E 2019-03-23 08:24:00 2 47 22.5
003C468E 2019-03-23 07:51:51 1.9 46 22.4
003C468E 2019-03-23 07:19:41 1.9 46 22.3
003C468E 2019-03-23 06:47:32 2 46 22.1
003C468E 2019-03-23 06:15:22 2.1 46 22.1
003C468E 2019-03-23 05:43:13 2.3 46 22
003C468E 2019-03-23 05:11:04 2.5 46 21.9
003C468E 2019-03-23 04:38:55 2.7 46 21.8
003C468E 2019-03-23 04:06:46 2.9 46 21.8
003C468E 2019-03-23 03:34:38 3.2 45 21.5
003C468E 2019-03-23 03:02:28 3.4 45 21.3
003C468E 2019-03-23 02:30:19 3.7 45 21.1
003C468E 2019-03-23 01:58:11 4 45 21
003C468E 2019-03-23 01:26:03 4.4 45 20.8
003C468E 2019-03-23 00:53:56 4.8 45 20.5
003C468E 2019-03-23 00:21:49 5.2 44 20.4
003C468E 2019-03-22 23:49:41 5.8 44 20.3
003C468E 2019-03-22 23:17:34 6.3 44 20.2
003C468E 2019-03-22 22:45:29 7 44 20.3
003C468E 2019-03-22 22:13:24 7.6 43 19.9
003C468E 2019-03-22 21:41:19 8.3 43 19.7
003C468E 2019-03-22 21:09:15 9.2 42 19.7
003C468E 2019-03-22 20:37:13 10.1 42 19.7
003C468E 2019-03-22 20:05:11 11.1 41 19.6
003C468E 2019-03-22 19:33:10 11.8 43 19.6
003C468E 2019-03-22 19:01:07 10.6 41 19.7
003C468E 2019-03-22 18:29:03 11.9 42 19.7
003C468E 2019-03-22 17:56:58 12.7 43 19.9
003C468E 2019-03-22 17:24:55 12.9 43 20
003C468E 2019-03-22 16:52:53 12.1 44 20.2
003C468E 2019-03-22 16:20:17 9.1 49 20.4
003C468E 2019-03-22 15:48:11 6.6 51 20.4
003C468E 2019-03-22 15:16:05 6.4 51 20.4
003C468E 2019-03-22 14:43:57 6.1 52 20.5
003C468E 2019-03-22 14:11:51 5.9 52 21.8
003C468E 2019-03-22 13:39:43 5.7 52 22
003C468E 2019-03-22 13:07:37 5.6 52 22.1
003C468E 2019-03-22 12:35:31 5.6 52 23
003C468E 2019-03-22 12:03:26 5.7 51 23.7
003C468E 2019-03-22 11:31:21 6 51 23.8
003C468E 2019-03-22 10:59:17 6.5 50 23.9
003C468E 2019-03-22 10:27:12 7.3 50 23.9
003C468E 2019-03-22 09:55:08 8.3 50 23.9
003C468E 2019-03-22 09:23:05 9.2 51 23.9
003C468E 2019-03-22 08:51:02 8.6 57 23.9
003C468E 2019-03-22 08:18:57 3 69 24
003C468E 2019-03-22 07:46:48 1.6 56 23.9
003C468E 2019-03-22 07:14:38 1.7 56 24
003C468E 2019-03-22 06:42:28 1.9 56 24
003C468E 2019-03-22 06:10:19 2.2 56 24
003C468E 2019-03-22 05:38:10 2.4 56 24
003C468E 2019-03-22 05:06:02 2.7 56 24
003C468E 2019-03-22 04:33:53 3 56 24.6
003C468E 2019-03-22 04:01:45 3.4 56 24.5
003C468E 2019-03-22 03:29:37 3.7 56 24.5
003C468E 2019-03-22 02:57:31 4 56 24.4
003C468E 2019-03-22 02:25:26 4.4 56 24.5
003C468E 2019-03-22 01:53:19 4.8 56 24.4
003C468E 2019-03-22 01:21:13 5.2 56 24.4
003C468E 2019-03-22 00:49:08 5.5 56 23.8
003C468E 2019-03-22 00:17:02 5.8 56 23.7
003C468E 2019-03-21 23:44:58 6.1 55 23.7
003C468E 2019-03-21 23:12:53 6.5 55 23
003C468E 2019-03-21 22:40:48 6.9 55 22.3
003C468E 2019-03-21 22:08:44 7.4 55 22.3
003C468E 2019-03-21 21:36:41 8 54 22.2
003C468E 2019-03-21 21:04:38 8.8 54 22.3
003C468E 2019-03-21 20:32:36 9.7 53 22.3
003C468E 2019-03-21 20:00:34 10.8 52 22.3
003C468E 2019-03-21 19:28:33 12.2 52 22.3
003C468E 2019-03-21 18:56:33 13.2 54 22.4
003C468E 2019-03-21 17:52:32 10.6 55 22.5
003C468E 2019-03-21 17:20:30 9 53 22.5
003C468E 2019-03-21 16:48:28 10 50 22.5
003C468E 2019-03-21 16:16:27 11.2 49 23.3
003C468E 2019-03-21 15:44:26 12.4 49 23.9
003C468E 2019-03-21 15:12:25 13.7 49 24
003C468E 2019-03-21 14:40:26 14.8 50 23.4
003C468E 2019-03-21 14:08:31 14.4 53 24.1
003C468E 2019-03-21 13:35:59 14.6 53 24.2
003C468E 2019-03-21 13:04:00 14.3 54 24.2
003C468E 2019-03-21 12:00:00 9.8 58 24.2
003C468E 2019-03-21 11:27:58 9.7 57 24.8
003C468E 2019-03-21 10:55:56 9.9 56 24.8
003C468E 2019-03-21 10:23:54 10.4 55 24.8
003C468E 2019-03-21 09:51:54 11.1 55 24.8
003C468E 2019-03-21 09:19:52 11.7 57 25.3
003C468E 2019-03-21 08:47:51 10 66 25.3
003C468E 2019-03-21 08:15:46 4.1 83 25.3
003C468E 2019-03-21 07:43:37 0.9 61 25.2
003C468E 2019-03-21 07:11:29 0.9 61 25.2
003C468E 2019-03-21 06:39:18 0.9 61 25.2
003C468E 2019-03-21 06:07:09 1.1 61 25.2
003C468E 2019-03-21 05:35:00 1.2 60 25.2
003C468E 2019-03-21 05:02:51 1.4 60 25.6
003C468E 2019-03-21 04:30:42 1.6 60 25.5
003C468E 2019-03-21 03:58:33 1.8 60 25.5
003C468E 2019-03-21 03:26:23 2.1 60 25.4
003C468E 2019-03-21 02:54:14 2.3 60 25
003C468E 2019-03-21 02:22:05 2.6 60 24.4
003C468E 2019-03-21 01:49:56 3 60 24.3
003C468E 2019-03-21 01:17:49 3.4 60 24.2
003C468E 2019-03-21 00:45:40 3.8 60 23.5
003C468E 2019-03-21 00:13:32 4.3 60 23.5
003C468E 2019-03-20 23:41:25 4.7 59 23.5
003C468E 2019-03-20 23:09:18 5.3 59 23.5
003C468E 2019-03-20 22:37:12 5.9 59 23.4
003C468E 2019-03-20 22:05:06 6.6 58 22.7
003C468E 2019-03-20 21:33:01 7.4 58 22.6
003C468E 2019-03-20 21:00:58 8.4 57 22.6
003C468E 2019-03-20 20:28:55 9.6 57 22.5
003C468E 2019-03-20 19:56:52 10.8 57 21.7
003C468E 2019-03-20 19:24:51 11 64 21.7
003C468E 2019-03-20 18:52:48 10.2 59 21.6
003C468E 2019-03-20 17:48:41 4.8 77 21.8
003C468E 2019-03-20 17:16:34 3.7 55 21.7
003C468E 2019-03-20 16:44:26 4.1 55 21.7
003C468E 2019-03-20 16:12:19 4.7 54 22.6
003C468E 2019-03-20 15:40:13 5.2 54 23.3
003C468E 2019-03-20 15:08:08 5.8 55 22.6
003C468E 2019-03-20 14:36:02 6.2 55 22.7
003C468E 2019-03-20 14:03:58 6.5 55 22.7
003C468E 2019-03-20 13:31:52 6.8 55 23.5
003C468E 2019-03-20 12:59:48 6.9 55 23.5
003C468E 2019-03-20 12:27:42 6.9 55 23.6
003C468E 2019-03-20 11:55:36 6.9 54 23.6
003C468E 2019-03-20 11:23:31 7 54 23.6
003C468E 2019-03-20 10:50:53 7.4 52 23.7
003C468E 2019-03-20 10:18:48 8.1 51 23.6
003C468E 2019-03-20 09:46:45 9.2 50 23.7
003C468E 2019-03-20 09:14:41 10.5 51 23.8
003C468E 2019-03-20 08:42:39 10.3 56 24.4
003C468E 2019-03-20 07:38:24 1.1 59 24.4
003C468E 2019-03-20 07:06:15 1.3 59 24.4
003C468E 2019-03-20 06:34:06 1.5 59 24.4
003C468E 2019-03-20 06:01:56 1.7 59 24.4
003C468E 2019-03-20 05:29:46 1.8 59 24.9
003C468E 2019-03-20 04:57:37 2 59 24.9
003C468E 2019-03-20 04:25:29 2.2 59 24.9
003C468E 2019-03-20 03:53:20 2.4 59 25.3
003C468E 2019-03-20 03:21:12 2.6 59 25.3
003C468E 2019-03-20 02:49:02 2.8 59 24.8
003C468E 2019-03-20 02:16:53 3.1 59 24.3
003C468E 2019-03-20 01:44:45 3.4 59 24.4
003C468E 2019-03-20 01:12:37 3.7 59 24.3
003C468E 2019-03-20 00:40:29 3.9 59 24.3
003C468E 2019-03-20 00:08:21 4.3 59 23.8
003C468E 2019-03-19 23:36:12 4.6 59 23.8
003C468E 2019-03-19 23:04:06 5 58 23.8
003C468E 2019-03-19 22:31:59 5.5 58 23.8
003C468E 2019-03-19 21:59:54 6.1 58 23.8
003C468E 2019-03-19 21:27:48 6.7 58 23.9
003C468E 2019-03-19 20:55:42 7.6 57 23.9
003C468E 2019-03-19 20:23:39 8.5 57 24
003C468E 2019-03-19 19:51:35 9.7 56 24
003C468E 2019-03-19 19:19:32 10.9 57 24.1
003C468E 2019-03-19 18:47:30 11.2 64 23.5
003C468E 2019-03-19 18:15:27 11 57 23.4
003C468E 2019-03-19 17:43:25 10.5 59 23.5
003C468E 2019-03-19 16:39:17 8 56 23.5
003C468E 2019-03-19 16:07:13 8.6 56 23.5
003C468E 2019-03-19 15:35:08 9.3 56 22.9
003C468E 2019-03-19 15:03:05 9.9 56 22.9
003C468E 2019-03-19 14:31:02 10.7 55 22.9
003C468E 2019-03-19 13:59:00 11.5 54 22.1
003C468E 2019-03-19 13:26:59 12.4 55 22.1
003C468E 2019-03-19 12:54:57 12.7 57 22.2
003C468E 2019-03-19 11:50:53 9.2 60 22.2
003C468E 2019-03-19 11:18:49 9.3 59 22.1
003C468E 2019-03-19 10:46:46 9.6 59 22.1
003C468E 2019-03-19 10:14:42 10.2 59 22.1
003C468E 2019-03-19 09:42:39 10.4 62 22.2
003C468E 2019-03-19 09:10:35 7.7 80 22.2
003C468E 2019-03-19 08:38:28 2.3 60 22.1
003C468E 2019-03-19 08:05:45 2.2 59 22.2
003C468E 2019-03-19 07:33:35 2.2 59 22.2
003C468E 2019-03-19 07:01:24 2.3 59 22.2
003C468E 2019-03-19 06:29:13 2.3 59 22.1
003C468E 2019-03-19 05:57:03 2.4 59 22
003C468E 2019-03-19 05:24:53 2.4 59 21.9
003C468E 2019-03-19 04:52:42 2.5 59 22.8
003C468E 2019-03-19 04:20:34 2.6 59 22.8
003C468E 2019-03-19 03:48:25 2.7 59 22.8
003C468E 2019-03-19 03:16:17 2.8 59 23.4
003C468E 2019-03-19 02:44:08 2.9 59 23.4
003C468E 2019-03-19 02:11:59 3.1 58 23.3
003C468E 2019-03-19 01:39:50 3.2 58 23.4
003C468E 2019-03-19 01:07:41 3.3 58 23.3
003C468E 2019-03-19 00:35:33 3.5 58 23.4
003C468E 2019-03-19 00:03:26 3.7 58 23.3
003C468E 2019-03-18 23:31:18 3.9 58 23.3
003C468E 2019-03-18 22:59:12 4.1 58 23.2
003C468E 2019-03-18 22:27:07 4.4 58 23.2
003C468E 2019-03-18 21:55:00 4.7 57 23.2
003C468E 2019-03-18 21:22:54 5 57 23.2
003C468E 2019-03-18 20:50:47 5.4 57 23.1
003C468E 2019-03-18 20:18:41 5.9 56 23.2
003C468E 2019-03-18 19:46:36 6.6 56 23.3
003C468E 2019-03-18 19:14:30 7.3 55 23.3
003C468E 2019-03-18 18:42:25 8.2 55 23.3
003C468E 2019-03-18 18:10:20 9.3 55 23.3
003C468E 2019-03-18 17:38:17 9.8 58 23.3
003C468E 2019-03-18 17:06:15 6.4 66 23.3
003C468E 2019-03-18 16:34:11 6.4 58 23.4
003C468E 2019-03-18 16:02:06 6.7 58 23.4
003C468E 2019-03-18 15:30:02 6.8 58 22.7
003C468E 2019-03-18 14:57:56 7.1 58 22.8
003C468E 2019-03-18 14:25:51 7.3 58 22.7
003C468E 2019-03-18 13:53:46 7.4 58 21.9
003C468E 2019-03-18 13:21:43 7.6 58 22
003C468E 2019-03-18 12:49:40 7.7 58 22.1
003C468E 2019-03-18 12:17:38 7.8 58 22.1
003C468E 2019-03-18 11:45:35 8 57 22.2
003C468E 2019-03-18 11:13:31 8.5 56 22.1
003C468E 2019-03-18 10:41:28 9.2 56 22.1
003C468E 2019-03-18 10:09:25 10.1 56 22.2
003C468E 2019-03-18 09:37:23 11 57 22.3
003C468E 2019-03-18 09:05:21 10.8 62 22.4
003C468E 2019-03-18 08:33:18 6.5 80 22.4
003C468E 2019-03-18 08:01:10 2.8 59 22.3
003C468E 2019-03-18 07:29:00 2.8 59 22.2
003C468E 2019-03-18 06:56:52 2.9 59 22.2
003C468E 2019-03-18 06:24:43 2.9 59 22.1
003C468E 2019-03-18 05:52:33 3 59 21.9
003C468E 2019-03-18 05:19:51 3 59 21.8
003C468E 2019-03-18 04:47:40 3 59 21.6
003C468E 2019-03-18 04:15:31 3.1 59 21.7
003C468E 2019-03-18 03:43:20 3.1 59 21.5
003C468E 2019-03-18 03:11:09 3.2 59 21.4
003C468E 2019-03-18 02:38:59 3.2 59 21.4
003C468E 2019-03-18 02:06:48 3.2 59 21.4
003C468E 2019-03-18 01:34:36 3.2 59 21.4
003C468E 2019-03-18 01:02:26 3.2 59 21.3
003C468E 2019-03-18 00:30:15 3.2 59 21.3
003C468E 2019-03-17 23:58:03 3.2 59 21.3
003C468E 2019-03-17 23:25:52 3.2 59 21.2
003C468E 2019-03-17 22:53:42 3.3 59 21.2
003C468E 2019-03-17 22:21:32 3.4 58 21.2
003C468E 2019-03-17 21:49:22 3.5 58 22.2
003C468E 2019-03-17 21:17:12 3.8 58 22.2
003C468E 2019-03-17 20:45:02 4.2 57 22.1
003C468E 2019-03-17 20:12:54 4.8 56 22.1
003C468E 2019-03-17 19:40:47 5.6 56 22.1
003C468E 2019-03-17 19:08:40 6.6 55 22.2
003C468E 2019-03-17 18:36:34 7.9 55 22.3
003C468E 2019-03-17 18:04:30 9.2 56 23.1
003C468E 2019-03-17 17:32:28 9.1 67 23.1
003C468E 2019-03-17 17:00:23 7.4 53 23.2
003C468E 2019-03-17 16:28:18 8.5 55 23.2
003C468E 2019-03-17 15:24:11 9.2 52 23.3
003C468E 2019-03-17 14:52:09 10.5 51 23.4
003C468E 2019-03-17 14:20:08 11.8 52 23.3
003C468E 2019-03-17 13:16:05 7.8 75 23.4
003C468E 2019-03-17 12:43:56 2.9 71 23.4
003C468E 2019-03-17 12:11:43 2.3 56 23.4
003C468E 2019-03-17 11:39:31 2.2 56 23.5
003C468E 2019-03-17 11:07:19 2.1 56 23.5
003C468E 2019-03-17 10:35:07 2.1 56 23.5
003C468E 2019-03-17 10:02:56 2.1 55 23.5
003C468E 2019-03-17 09:30:46 2.1 55 23.5
003C468E 2019-03-17 08:58:35 2.1 55 23.5
003C468E 2019-03-17 08:26:25 2.1 55 23.5
003C468E 2019-03-17 07:54:14 2.2 55 23.5
003C468E 2019-03-17 07:22:03 2.3 55 22.8
003C468E 2019-03-17 06:49:52 2.3 55 22.7
003C468E 2019-03-17 06:17:42 2.5 55 22.7
003C468E 2019-03-17 05:45:33 2.6 55 22.8
003C468E 2019-03-17 05:13:23 2.7 55 22.8
003C468E 2019-03-17 04:41:13 2.9 55 22.8
003C468E 2019-03-17 04:09:03 3.1 55 23.5
003C468E 2019-03-17 03:36:52 3.2 55 22.8
003C468E 2019-03-17 03:04:42 3.4 55 22.8
003C468E 2019-03-17 02:32:00 3.6 55 22.9
003C468E 2019-03-17 01:59:51 3.8 55 22.9
003C468E 2019-03-17 01:27:44 4 55 22.9
003C468E 2019-03-17 00:55:37 4.3 55 22.9
003C468E 2019-03-17 00:23:29 4.7 55 22.9
003C468E 2019-03-16 23:51:21 5 54 23
003C468E 2019-03-16 23:19:14 5.4 54 23
003C468E 2019-03-16 22:47:07 5.9 54 23
003C468E 2019-03-16 22:15:00 6.5 54 23
003C468E 2019-03-16 21:42:53 7.2 53 23
003C468E 2019-03-16 21:10:47 8 53 23
003C468E 2019-03-16 20:38:42 9 52 23
003C468E 2019-03-16 20:06:38 10.2 52 23
003C468E 2019-03-16 19:34:35 11.6 51 23
003C468E 2019-03-16 19:02:34 13.3 52 23.1
003C468E 2019-03-16 18:30:33 14.5 56 23.2
003C468E 2019-03-16 17:26:34 11.4 63 23.3
003C468E 2019-03-16 12:06:12 2.1 61 23.3
003C468E 2019-03-16 11:34:04 1.8 56 23.3
003C468E 2019-03-16 11:01:55 1.8 56 23.3
003C468E 2019-03-16 10:29:48 1.8 56 23.3
003C468E 2019-03-16 09:57:41 1.9 56 22.7
003C468E 2019-03-16 09:25:32 1.9 56 23.4
003C468E 2019-03-16 08:53:24 1.9 56 23.4
003C468E 2019-03-16 08:21:17 2 56 23.3
003C468E 2019-03-16 07:49:10 2 56 23.2
003C468E 2019-03-16 07:17:03 2.1 56 23.8
003C468E 2019-03-16 06:44:55 2.1 56 23.8
003C468E 2019-03-16 06:12:48 2.2 56 23.7
003C468E 2019-03-16 05:40:42 2.3 56 23.6
003C468E 2019-03-16 05:08:34 2.4 56 23.5
003C468E 2019-03-16 04:36:28 2.5 56 23.4
003C468E 2019-03-16 04:04:22 2.7 56 23.4
003C468E 2019-03-16 03:32:14 2.8 56 23.4
003C468E 2019-03-16 03:00:07 3 56 23.4
003C468E 2019-03-16 02:28:00 3.1 56 23.4
003C468E 2019-03-16 01:55:54 3.3 56 23.2
003C468E 2019-03-16 01:23:46 3.5 56 23.2
003C468E 2019-03-16 00:51:39 3.7 56 23.2
003C468E 2019-03-16 00:19:31 3.9 56 23
003C468E 2019-03-15 23:46:53 4.2 56 22.9
003C468E 2019-03-15 23:14:46 4.5 56 22.8
003C468E 2019-03-15 22:42:39 4.9 56 22.8
003C468E 2019-03-15 22:10:32 5.5 55 22.8
003C468E 2019-03-15 21:38:26 6.1 55 22.7
003C468E 2019-03-15 21:06:22 6.8 56 22.6
003C468E 2019-03-15 20:34:18 7.6 56 21.8
003C468E 2019-03-15 20:02:14 8.1 60 21.8
003C468E 2019-03-15 19:30:10 7.1 66 21.8
003C468E 2019-03-15 18:58:05 5.8 53 21.9
003C468E 2019-03-15 18:26:02 6.5 54 20.8
003C468E 2019-03-15 17:53:58 7.2 55 20.9
003C468E 2019-03-15 17:21:53 7.5 59 22.1
003C468E 2019-03-15 16:17:43 4.7 51 22.2
003C468E 2019-03-15 15:45:37 4.9 51 22.2
003C468E 2019-03-15 15:13:34 5 51 22.2
003C468E 2019-03-15 14:41:29 5.2 51 23.1
003C468E 2019-03-15 14:09:23 5.3 51 23
003C468E 2019-03-15 13:37:18 5.6 51 23
003C468E 2019-03-15 13:05:12 5.8 51 23
003C468E 2019-03-15 12:33:08 6 50 23.2
003C468E 2019-03-15 12:01:03 6.4 50 23.2
003C468E 2019-03-15 11:28:58 7 50 23.2
003C468E 2019-03-15 10:56:54 7.8 49 23.2
003C468E 2019-03-15 10:24:51 8.8 49 23.3
003C468E 2019-03-15 09:52:49 10.1 49 23.2
003C468E 2019-03-15 09:20:50 11 52 23.3
003C468E 2019-03-15 08:16:48 3.7 73 23.9
003C468E 2019-03-15 07:44:43 2.1 48 24.5
003C468E 2019-03-15 07:12:36 2.1 48 24.4
003C468E 2019-03-15 06:40:29 2.2 48 24.3
003C468E 2019-03-15 06:08:24 2.3 48 24.3
003C468E 2019-03-15 05:36:16 2.4 48 24.3
003C468E 2019-03-15 05:04:10 2.5 48 24.3
003C468E 2019-03-15 04:32:04 2.5 48 24.3
003C468E 2019-03-15 03:59:59 2.6 48 24.3
003C468E 2019-03-15 03:27:54 2.7 48 23.6
003C468E 2019-03-15 02:55:49 2.7 48 23.5
003C468E 2019-03-15 02:23:45 2.8 47 24.2
003C468E 2019-03-15 01:51:39 2.9 47 24.2
003C468E 2019-03-15 01:19:34 3 47 23.5
003C468E 2019-03-15 00:47:29 3.2 47 23.6
003C468E 2019-03-15 00:15:22 3.4 47 23.5
003C468E 2019-03-14 23:43:16 3.6 47 23.4
003C468E 2019-03-14 23:11:10 3.9 47 23.3
003C468E 2019-03-14 22:39:04 4.2 47 23.3
003C468E 2019-03-14 22:06:58 4.6 47 23.9
003C468E 2019-03-14 21:34:53 5 46 23.9
003C468E 2019-03-14 21:02:15 5.6 46 23.9
003C468E 2019-03-14 20:30:10 6.3 46 23.9
003C468E 2019-03-14 19:58:05 7 46 23.9
003C468E 2019-03-14 19:26:02 8 46 23.3
003C468E 2019-03-14 18:53:59 9.1 46 22.4
003C468E 2019-03-14 18:21:56 10.3 46 22.5
003C468E 2019-03-14 17:49:54 11.3 49 22.5
003C468E 2019-03-14 16:45:51 5.1 57 22.6
003C468E 2019-03-14 16:13:45 4.8 48 22.6
003C468E 2019-03-14 15:41:39 4.8 48 22.7
003C468E 2019-03-14 15:09:33 4.8 48 23.4
003C468E 2019-03-14 14:37:27 4.8 48 23.4
003C468E 2019-03-14 14:05:23 4.7 48 23.5
003C468E 2019-03-14 13:33:18 4.7 47 23.5
003C468E 2019-03-14 13:01:13 4.9 47 22.8
003C468E 2019-03-14 12:29:08 5 47 22.8
003C468E 2019-03-14 11:57:05 5.3 47 22.9
003C468E 2019-03-14 11:25:01 5.5 47 22.8
003C468E 2019-03-14 10:52:57 6 46 22.8
003C468E 2019-03-14 10:20:55 6.6 46 22.9
003C468E 2019-03-14 09:48:53 7.5 46 22.9
003C468E 2019-03-14 09:16:49 8.3 49 22.9
003C468E 2019-03-14 08:44:44 7.8 59 22.9
003C468E 2019-03-14 04:59:21 0.4 41 22.7
003C468E 2019-03-14 04:27:08 0.4 41 22.6
003C468E 2019-03-14 03:54:55 0.4 41 22.6
003C468E 2019-03-14 03:22:43 0.5 41 22.5
003C468E 2019-03-14 02:50:31 0.5 40 22.4
003C468E 2019-03-14 02:18:20 0.7 40 22.4
003C468E 2019-03-14 01:46:10 0.8 40 21.5
003C468E 2019-03-14 01:14:00 0.9 40 21.4
003C468E 2019-03-14 00:41:50 1.2 39 21.3
003C468E 2019-03-14 00:09:42 1.5 39 21.3
003C468E 2019-03-13 23:37:33 1.8 39 21.1
003C468E 2019-03-13 23:05:25 2.3 38 21.1
003C468E 2019-03-13 22:33:17 2.8 38 21
003C468E 2019-03-13 22:01:09 3.5 37 21.1
003C468E 2019-03-13 21:29:02 4.4 37 21.2
003C468E 2019-03-13 20:56:57 5.3 36 21.3
003C468E 2019-03-13 20:24:52 6.5 36 21.2
003C468E 2019-03-13 19:52:48 8 35 21.3
003C468E 2019-03-13 19:20:46 9.4 37 20
003C468E 2019-03-13 18:48:45 9.1 33 20.2
003C468E 2019-03-13 18:16:13 11.1 33 20.6
003C468E 2019-03-13 17:44:14 12.2 37 20.6
003C468E 2019-03-13 17:12:14 10.2 30 20.8
003C468E 2019-03-13 16:40:13 12.5 29 20.7
003C468E 2019-03-13 16:08:14 15.3 28 20.8
003C468E 2019-03-13 15:04:20 17.1 29 21.1
003C468E 2019-03-13 14:00:25 15.2 34 21.1
003C468E 2019-03-13 12:56:28 9.2 47 21.3
003C468E 2019-03-13 12:24:25 2.7 56 23.1
003C468E 2019-03-13 11:52:14 2.5 47 21.4
003C468E 2019-03-13 11:20:06 2.6 46 21.4
003C468E 2019-03-13 10:47:58 2.9 46 21.4
003C468E 2019-03-13 10:15:51 3.4 46 21.5
003C468E 2019-03-13 09:43:45 3.8 47 21.5
003C468E 2019-03-13 09:11:36 3.1 53 21.5
003C468E 2019-03-13 08:39:30 -3.8 86 21.7
003C468E 2019-03-13 08:07:08 -8.3 46 21.8
003C468E 2019-03-13 07:34:49 -8.2 46 21.9
003C468E 2019-03-13 07:02:29 -8 46 21.9
003C468E 2019-03-13 06:30:10 -7.7 46 21.9
003C468E 2019-03-13 05:57:51 -7.4 46 21.8
003C468E 2019-03-13 05:25:34 -7.1 45 21.8
003C468E 2019-03-13 04:53:15 -6.7 45 21.7
003C468E 2019-03-13 04:20:57 -6.3 45 21.7
003C468E 2019-03-13 03:48:41 -5.8 45 21.7
003C468E 2019-03-13 03:16:25 -5.4 45 21.6
003C468E 2019-03-13 02:44:09 -4.9 45 22.5
003C468E 2019-03-13 02:11:53 -4.4 45 22.4
003C468E 2019-03-13 01:39:39 -3.9 45 22.5
003C468E 2019-03-13 01:07:24 -3.3 45 22.5
003C468E 2019-03-13 00:35:11 -2.8 45 22.4
003C468E 2019-03-13 00:02:58 -2.2 45 22.5
003C468E 2019-03-12 23:30:47 -1.5 45 22.5
003C468E 2019-03-12 22:58:36 -0.8 45 22.4
003C468E 2019-03-12 22:26:25 -0.1 45 23.2
003C468E 2019-03-12 21:54:16 0.7 44 23.1
003C468E 2019-03-12 21:22:06 1.5 44 23.1
003C468E 2019-03-12 20:49:59 2.6 44 23.1
003C468E 2019-03-12 20:17:52 3.6 43 23.1
003C468E 2019-03-12 19:45:46 4.9 43 23.1
003C468E 2019-03-12 19:13:40 6.2 43 23.1
003C468E 2019-03-12 18:41:34 7.6 43 23.1
003C468E 2019-03-12 18:09:30 7.9 47 23.1
003C468E 2019-03-12 17:05:15 1.3 46 23.1
003C468E 2019-03-12 16:33:06 1.5 46 23.1
003C468E 2019-03-12 16:00:57 1.7 46 23.8
003C468E 2019-03-12 15:28:15 1.7 46 23.8
003C468E 2019-03-12 14:56:06 1.8 46 23.9
003C468E 2019-03-12 14:23:57 1.7 46 23.9
003C468E 2019-03-12 13:51:48 1.7 46 24.4
003C468E 2019-03-12 13:19:38 1.6 46 23.9
003C468E 2019-03-12 12:47:28 1.5 45 23.9
003C468E 2019-03-12 12:15:18 1.4 45 23.9
003C468E 2019-03-12 11:43:08 1.7 44 23.8
003C468E 2019-03-12 11:10:58 2.5 43 23.8
003C468E 2019-03-12 10:38:49 3.6 43 23.8
003C468E 2019-03-12 10:06:42 4.5 44 23.8
003C468E 2019-03-12 09:34:35 5.2 45 23.9
003C468E 2019-03-12 09:02:28 5 50 23.2
003C468E 2019-03-12 07:58:03 -6.8 45 23.9
003C468E 2019-03-12 07:25:45 -6.7 44 24.4
003C468E 2019-03-12 06:53:26 -6.5 44 25
003C468E 2019-03-12 06:21:08 -6.2 43 25
003C468E 2019-03-12 05:48:50 -5.9 43 25
003C468E 2019-03-12 05:16:32 -5.5 43 24.9
003C468E 2019-03-12 04:44:15 -5.1 43 24.9
003C468E 2019-03-12 04:11:59 -4.7 43 25.4
003C468E 2019-03-12 03:39:43 -4.2 43 25.4
003C468E 2019-03-12 03:07:27 -3.6 43 25.3
003C468E 2019-03-12 02:35:12 -3 43 24.8
003C468E 2019-03-12 02:02:58 -2.3 43 24.9
003C468E 2019-03-12 01:30:45 -1.6 42 24.9
003C468E 2019-03-12 00:58:33 -0.8 42 24.8
003C468E 2019-03-12 00:26:21 0.2 42 24.8
003C468E 2019-03-11 23:54:11 1.2 41 24.3
003C468E 2019-03-11 23:22:02 2.4 41 24.2
003C468E 2019-03-11 22:49:54 3.8 40 24.1
003C468E 2019-03-11 22:17:46 5.4 40 24.1
003C468E 2019-03-11 21:45:40 7.3 39 24.1
003C468E 2019-03-11 21:13:36 9.5 39 24.2
003C468E 2019-03-11 20:41:35 11.6 39 24.1
003C468E 2019-03-11 19:05:35 6.9 49 24.1
003C468E 2019-03-11 18:33:30 6.5 42 24.1
003C468E 2019-03-11 18:01:26 6.8 47 24.1
003C468E 2019-03-11 17:29:22 1.8 60 23.6
003C468E 2019-03-11 16:57:15 0.2 44 22.8
003C468E 2019-03-11 16:25:06 0.5 44 22
003C468E 2019-03-11 15:52:57 0.6 44 21.9
003C468E 2019-03-11 15:20:48 0.7 44 22
003C468E 2019-03-11 14:48:39 0.7 44 22.1
003C468E 2019-03-11 14:16:30 0.8 44 22.9
003C468E 2019-03-11 13:44:21 0.9 44 22.1
003C468E 2019-03-11 13:12:15 1.1 43 22.2
003C468E 2019-03-11 12:39:37 1.2 43 22.3
003C468E 2019-03-11 12:07:31 1.4 42 22.2
003C468E 2019-03-11 11:35:25 1.8 42 22.2
003C468E 2019-03-11 11:03:19 2.5 40 22.2
003C468E 2019-03-11 10:31:14 4 38 22.3
003C468E 2019-03-11 09:59:11 6 38 22.3
003C468E 2019-03-11 09:27:09 7.9 40 22.4
003C468E 2019-03-11 08:55:10 6.2 53 22.4
003C468E 2019-03-11 08:23:03 -2.1 72 22.2
003C468E 2019-03-11 07:50:51 -4.8 42 22.1
003C468E 2019-03-11 07:18:39 -4.6 42 22
003C468E 2019-03-11 06:46:29 -4.4 42 22.1
003C468E 2019-03-11 06:14:19 -4.2 41 22
003C468E 2019-03-11 05:42:08 -3.8 41 22
003C468E 2019-03-11 05:09:59 -3.5 41 22.1
003C468E 2019-03-11 04:37:49 -3.1 41 21.9
003C468E 2019-03-11 04:05:38 -2.7 41 22
003C468E 2019-03-11 03:33:29 -2.3 41 22
003C468E 2019-03-11 03:01:21 -1.9 41 22.1
003C468E 2019-03-11 02:29:13 -1.4 40 22.2
003C468E 2019-03-11 01:57:06 -0.8 40 22.2
003C468E 2019-03-11 01:25:00 -0.2 40 21.4
003C468E 2019-03-11 00:52:52 0.4 39 21.4
003C468E 2019-03-11 00:20:44 1.2 39 21.4
003C468E 2019-03-10 23:48:37 2.1 38 21.6
003C468E 2019-03-10 23:16:31 3 38 21.6
003C468E 2019-03-10 22:44:24 4.1 37 21.8
003C468E 2019-03-10 22:12:20 5.4 37 21.9
003C468E 2019-03-10 21:40:16 6.8 36 21.9
003C468E 2019-03-10 21:08:14 8.6 34 22.8
003C468E 2019-03-10 20:36:12 10.7 33 22.9
003C468E 2019-03-10 20:04:10 13.3 31 22.9
003C468E 2019-03-10 19:00:14 15.5 34 23.1
003C468E 2019-03-10 18:28:16 15.1 36 23.2
003C468E 2019-03-10 17:56:17 15.6 35 23.4
003C468E 2019-03-10 17:24:20 12.1 42 23.6
003C468E 2019-03-10 16:52:21 12.7 41 23.7
003C468E 2019-03-10 16:20:23 14 42 23.8
003C468E 2019-03-10 15:48:23 12 46 23.8
003C468E 2019-03-10 15:16:23 13.1 46 24.3
003C468E 2019-03-10 14:44:24 11 53 24.9
003C468E 2019-03-10 14:12:24 10.3 54 24.9
003C468E 2019-03-10 13:08:18 3.9 55 25
003C468E 2019-03-10 12:36:13 3.2 54 25
003C468E 2019-03-10 12:04:08 2.7 52 25
003C468E 2019-03-10 11:32:04 2.4 52 25
003C468E 2019-03-10 10:59:58 2 52 25
003C468E 2019-03-10 10:27:52 1.3 51 25
003C468E 2019-03-10 09:55:14 1 51 24.9
003C468E 2019-03-10 09:23:08 0.9 50 25
003C468E 2019-03-10 08:51:00 1.2 50 24.9
003C468E 2019-03-10 08:18:53 1.4 50 24.8
003C468E 2019-03-10 07:46:44 1.7 50 24.8
003C468E 2019-03-10 07:14:37 1.8 50 24.3
003C468E 2019-03-10 06:42:32 1.9 50 24.2
003C468E 2019-03-10 06:10:25 2.1 50 24.1
003C468E 2019-03-10 05:38:18 2.2 50 24.1
003C468E 2019-03-10 05:06:10 2.4 50 24
003C468E 2019-03-10 04:34:03 2.5 50 24.5
003C468E 2019-03-10 04:01:55 2.7 50 24.9
003C468E 2019-03-10 03:29:48 2.9 50 24.8
003C468E 2019-03-10 02:57:41 3.2 49 24.8
003C468E 2019-03-10 02:25:34 3.5 49 25.2
003C468E 2019-03-10 01:53:28 3.8 49 24.7
003C468E 2019-03-10 01:21:21 4.2 49 24.2
003C468E 2019-03-10 00:49:15 4.7 48 24.7
003C468E 2019-03-10 00:17:09 5.4 48 24.6
003C468E 2019-03-09 23:45:05 6.2 47 24.5
003C468E 2019-03-09 23:13:02 7.2 46 24.5
003C468E 2019-03-09 22:41:01 8.4 46 24.4
003C468E 2019-03-09 22:09:01 9.9 45 24.3
003C468E 2019-03-09 21:37:01 11.8 44 24.2
003C468E 2019-03-09 21:05:01 14.1 43 24.2
003C468E 2019-03-09 19:29:05 11 48 24.2
003C468E 2019-03-09 18:57:06 12.3 40 24.1
003C468E 2019-03-09 18:25:08 15.1 38 24.1
003C468E 2019-03-09 17:21:08 12.1 49 24.2
003C468E 2019-03-09 16:49:08 10.5 48 24.3
003C468E 2019-03-09 16:17:04 11.7 47 24.3
003C468E 2019-03-09 15:45:02 12.8 47 24.3
003C468E 2019-03-09 15:13:02 13.9 46 24.3
003C468E 2019-03-09 14:41:04 15 46 24.3
003C468E 2019-03-09 13:37:07 13.7 51 24.9
003C468E 2019-03-09 13:05:07 9.6 63 24.4
003C468E 2019-03-09 12:33:04 7.1 73 23.8
003C468E 2019-03-09 12:00:59 2.2 66 23.9
003C468E 2019-03-09 11:28:50 1.9 65 23.8
003C468E 2019-03-09 10:56:41 1.4 65 23.2
003C468E 2019-03-09 10:24:31 1 63 23.2
003C468E 2019-03-09 09:52:21 0.4 64 23.2
003C468E 2019-03-09 09:20:11 -0.6 62 22.4
003C468E 2019-03-09 08:48:00 -0.5 62 22.5
003C468E 2019-03-09 08:15:49 -0.3 61 22.4
003C468E 2019-03-09 07:43:38 -0.1 61 23.2
003C468E 2019-03-09 07:10:54 0.2 61 23.2
003C468E 2019-03-09 06:38:44 0.6 61 23.2
003C468E 2019-03-09 06:06:33 1 61 23.2
003C468E 2019-03-09 05:34:23 1.4 61 23.3
003C468E 2019-03-09 05:02:15 1.9 61 23.3
003C468E 2019-03-09 04:30:06 2.3 61 23.2
003C468E 2019-03-09 03:57:57 2.7 62 23.2
003C468E 2019-03-09 03:25:48 2.9 62 23.1
003C468E 2019-03-09 02:53:38 3.2 61 23.2
003C468E 2019-03-09 02:21:31 3.6 61 23.1
003C468E 2019-03-09 01:49:21 3.9 61 23.8
003C468E 2019-03-09 01:17:12 4.3 61 23.7
003C468E 2019-03-09 00:45:04 4.7 61 23
003C468E 2019-03-09 00:12:56 5 61 22.9
003C468E 2019-03-08 23:40:48 5.5 60 22.9
003C468E 2019-03-08 23:08:40 6 60 23.6
003C468E 2019-03-08 22:36:33 6.6 59 23.5
003C468E 2019-03-08 22:04:25 7.3 59 23.4
003C468E 2019-03-08 21:32:18 8.2 58 23.4
003C468E 2019-03-08 21:00:14 9.2 57 24
003C468E 2019-03-08 20:28:09 10.5 56 24
003C468E 2019-03-08 19:56:07 12 55 24
003C468E 2019-03-08 19:24:05 13.3 57 24.1
003C468E 2019-03-08 18:52:05 13.4 60 23.4
003C468E 2019-03-08 18:20:03 11.1 55 23.5
003C468E 2019-03-08 17:48:02 12.9 53 23.6
003C468E 2019-03-08 17:16:01 14.8 54 23.7
003C468E 2019-03-08 16:11:58 8.7 75 23.6
003C468E 2019-03-08 15:39:52 6.6 65 23.6
003C468E 2019-03-08 15:07:46 6.7 65 23.7
003C468E 2019-03-08 14:35:40 6.8 65 23.7
003C468E 2019-03-08 14:03:34 6.8 65 23.8
003C468E 2019-03-08 13:31:28 6.7 65 23.9
003C468E 2019-03-08 12:59:22 6.6 65 23.8
003C468E 2019-03-08 12:27:15 6.5 64 23.8
003C468E 2019-03-08 11:55:09 6.8 64 23.3
003C468E 2019-03-08 11:23:04 7.2 64 23.3
003C468E 2019-03-08 10:51:00 7.5 63 23.3
003C468E 2019-03-08 10:18:56 7.9 64 23.4
003C468E 2019-03-08 09:46:53 8.2 63 23.3
003C468E 2019-03-08 09:14:49 8.7 63 22.6
003C468E 2019-03-08 08:42:46 9.3 65 22.5
003C468E 2019-03-08 08:10:43 6.8 91 22.6
003C468E 2019-03-08 07:38:36 2.5 62 23.3
003C468E 2019-03-08 07:06:26 2.5 62 22.6
003C468E 2019-03-08 06:34:18 2.5 62 22.5
003C468E 2019-03-08 06:02:09 2.5 62 22.5
003C468E 2019-03-08 05:30:01 2.5 62 22.4
003C468E 2019-03-08 04:57:52 2.5 62 22.4
003C468E 2019-03-08 04:25:10 2.5 62 22.3
003C468E 2019-03-08 03:53:01 2.5 61 22.3
003C468E 2019-03-08 03:20:51 2.6 61 22.2
003C468E 2019-03-08 02:48:40 2.6 61 22.1
003C468E 2019-03-08 02:16:31 2.7 61 22
003C468E 2019-03-08 01:44:21 2.8 61 22
003C468E 2019-03-08 01:12:11 2.9 60 22
003C468E 2019-03-08 00:40:00 3.1 60 22
003C468E 2019-03-08 00:07:52 3.3 60 21.9
003C468E 2019-03-07 23:35:44 3.6 59 21.9
003C468E 2019-03-07 23:03:35 4 59 21.7
003C468E 2019-03-07 22:31:29 4.6 58 21.8
003C468E 2019-03-07 21:59:23 5.2 58 21.8
003C468E 2019-03-07 21:27:19 6.1 58 21.9
003C468E 2019-03-07 20:55:14 7.1 57 22
003C468E 2019-03-07 20:23:09 7.9 59 21.9
003C468E 2019-03-07 19:18:59 5.2 57 22.9
003C468E 2019-03-07 18:46:55 6.2 51 23
003C468E 2019-03-07 18:14:50 7.7 51 22.2
003C468E 2019-03-07 17:42:49 8.9 55 22.2
003C468E 2019-03-07 17:10:45 5.7 73 22.4
003C468E 2019-03-07 16:38:40 4.6 48 22.4
003C468E 2019-03-07 16:06:36 5.5 48 22.5
003C468E 2019-03-07 15:34:32 6.8 46 22.5
003C468E 2019-03-07 15:02:30 8.6 45 22.5
003C468E 2019-03-07 14:30:29 11 43 22.5
003C468E 2019-03-07 13:58:30 13.3 47 22.6
003C468E 2019-03-07 13:26:31 11.8 52 22.6
003C468E 2019-03-07 12:54:31 8.7 59 22.8
003C468E 2019-03-07 12:22:27 5.3 56 22.8
003C468E 2019-03-07 11:50:22 5.3 43 22.8
003C468E 2019-03-07 11:18:16 6.3 43 22.7
003C468E 2019-03-07 10:46:12 7.4 42 22.7
003C468E 2019-03-07 10:14:09 8.9 42 22.7
003C468E 2019-03-07 09:42:05 10.6 42 22.7
003C468E 2019-03-07 09:10:04 11.1 49 22.8
003C468E 2019-03-07 08:37:59 2.7 73 22.8
003C468E 2019-03-07 08:05:48 -0.5 43 22.7
003C468E 2019-03-07 07:33:37 -0.5 43 22.7
003C468E 2019-03-07 07:01:25 -0.4 43 22.6
003C468E 2019-03-07 06:29:12 -0.4 43 22.5
003C468E 2019-03-07 05:56:59 -0.5 43 21.5
003C468E 2019-03-07 05:24:46 -0.5 43 21.4
003C468E 2019-03-07 04:52:33 -0.5 43 21.4
003C468E 2019-03-07 04:20:20 -0.6 43 21.3
003C468E 2019-03-07 03:48:07 -0.6 43 21.1
003C468E 2019-03-07 03:15:55 -0.6 42 21.1
003C468E 2019-03-07 02:43:44 -0.5 42 21.2
003C468E 2019-03-07 02:11:33 -0.4 42 21.1
003C468E 2019-03-07 01:38:51 -0.2 42 21
003C468E 2019-03-07 01:06:41 0 41 20.9
003C468E 2019-03-07 00:34:31 0.2 41 20.9
003C468E 2019-03-07 00:02:23 0.5 41 20.8
003C468E 2019-03-06 23:30:14 0.9 40 21
003C468E 2019-03-06 22:58:06 1.5 40 22
003C468E 2019-03-06 22:25:58 2.2 39 22
003C468E 2019-03-06 21:53:51 3 38 22
003C468E 2019-03-06 21:21:44 4.2 37 21.9
003C468E 2019-03-06 20:49:39 5.7 36 21.9
003C468E 2019-03-06 20:17:36 7.7 35 21.9
003C468E 2019-03-06 19:45:34 9.5 37 22.7
003C468E 2019-03-06 19:13:32 7.8 33 22.8
003C468E 2019-03-06 18:41:28 10.2 34 22.8
003C468E 2019-03-06 17:37:25 5.1 44 22.8
003C468E 2019-03-06 17:05:18 -1.3 59 23.6
003C468E 2019-03-06 16:33:05 -3 38 23.6
003C468E 2019-03-06 16:00:53 -3.2 38 23.7
003C468E 2019-03-06 15:28:39 -3.6 38 23.7
003C468E 2019-03-06 14:56:25 -4.1 38 23.7
003C468E 2019-03-06 14:24:10 -4.4 38 23.8
003C468E 2019-03-06 13:51:56 -4.8 38 24.3
003C468E 2019-03-06 13:19:40 -5 37 24.2
003C468E 2019-03-06 12:47:22 -5.1 37 24.3
003C468E 2019-03-06 12:15:04 -5.2 36 24.3
003C468E 2019-03-06 11:42:48 -5.1 36 24.4
003C468E 2019-03-06 11:10:30 -4.8 36 24.4
003C468E 2019-03-06 10:38:13 -4.2 35 24.4
003C468E 2019-03-06 10:05:59 -3.1 34 24.4
003C468E 2019-03-06 09:33:46 -1.6 34 24.9
003C468E 2019-03-06 09:01:34 -0.4 38 24.4
003C468E 2019-03-06 07:56:54 -11.3 33 24.4
003C468E 2019-03-06 07:24:29 -11 33 24.4
003C468E 2019-03-06 06:52:05 -10.6 33 24.5
003C468E 2019-03-06 06:19:41 -10.2 33 24.5
003C468E 2019-03-06 05:47:19 -9.8 33 24.5
003C468E 2019-03-06 05:14:57 -9.4 33 24
003C468E 2019-03-06 04:42:36 -8.9 33 24
003C468E 2019-03-06 04:10:15 -8.5 33 24
003C468E 2019-03-06 03:37:53 -8 33 24
003C468E 2019-03-06 03:05:33 -7.4 33 24
003C468E 2019-03-06 02:33:12 -6.9 33 24
003C468E 2019-03-06 02:00:55 -6.4 33 24
003C468E 2019-03-06 01:28:36 -5.7 32 23.9
003C468E 2019-03-06 00:56:18 -5 32 23.9
003C468E 2019-03-06 00:24:03 -4.3 32 23.9
003C468E 2019-03-05 23:51:48 -3.4 32 23.3
003C468E 2019-03-05 23:19:34 -2.5 31 24
003C468E 2019-03-05 22:46:48 -1.4 31 24.5
003C468E 2019-03-05 22:14:36 -0.2 31 24.5
003C468E 2019-03-05 21:42:25 1.3 30 24.5
003C468E 2019-03-05 21:10:15 3 29 24.5
003C468E 2019-03-05 20:38:08 5 29 24.5
003C468E 2019-03-05 20:06:02 7.5 28 24
003C468E 2019-03-05 19:33:59 10.2 27 24
003C468E 2019-03-05 19:01:58 11.9 29 24
003C468E 2019-03-05 18:29:57 13.8 26 24
003C468E 2019-03-05 17:57:58 14 30 24
003C468E 2019-03-05 16:53:52 3.7 47 24.1
003C468E 2019-03-05 16:21:41 -1.4 45 24
003C468E 2019-03-05 15:49:28 -1.2 45 24
003C468E 2019-03-05 15:17:16 -0.8 45 24
003C468E 2019-03-05 14:45:05 -0.5 45 24
003C468E 2019-03-05 14:12:53 0 45 24
003C468E 2019-03-05 13:40:43 0.6 45 23.3
003C468E 2019-03-05 13:08:35 0.9 45 23.3
003C468E 2019-03-05 12:36:26 1.2 44 23.4
003C468E 2019-03-05 12:04:18 1.8 44 23.4
003C468E 2019-03-05 11:32:09 2.6 43 23.5
003C468E 2019-03-05 11:00:01 3.5 43 23.5
003C468E 2019-03-05 10:27:54 4.5 42 23.5
003C468E 2019-03-05 09:55:48 6 41 22.7
003C468E 2019-03-05 09:23:45 7.8 41 22.7
003C468E 2019-03-05 08:51:41 9 47 21.7
003C468E 2019-03-05 07:47:27 -1.7 44 21.5
003C468E 2019-03-05 07:15:14 -1.5 43 21.6
003C468E 2019-03-05 06:43:03 -1.2 43 21.5
003C468E 2019-03-05 06:10:51 -1 43 21.4
003C468E 2019-03-05 05:38:40 -0.7 43 21.4
003C468E 2019-03-05 05:06:30 -0.4 43 21.4
003C468E 2019-03-05 04:34:20 -0.1 43 21.4
003C468E 2019-03-05 04:02:10 0.3 43 21.4
003C468E 2019-03-05 03:30:00 0.6 43 21.3
003C468E 2019-03-05 02:57:50 1 43 21.2
003C468E 2019-03-05 02:25:40 1.4 43 21.2
003C468E 2019-03-05 01:53:31 1.7 43 21.2
003C468E 2019-03-05 01:21:22 2.1 43 21.2
003C468E 2019-03-05 00:49:15 2.5 42 21.3
003C468E 2019-03-05 00:17:07 2.9 42 21.2
003C468E 2019-03-04 23:45:01 3.5 42 21.3
003C468E 2019-03-04 23:12:55 4.1 41 21.3
003C468E 2019-03-04 22:40:49 4.7 41 21.3
003C468E 2019-03-04 22:08:45 5.6 40 21.3
003C468E 2019-03-04 21:36:41 6.7 39 21.1
003C468E 2019-03-04 21:04:37 8.1 38 21.2
003C468E 2019-03-04 20:32:35 9.8 37 22.2
003C468E 2019-03-04 20:00:02 11.9 36 22.3
003C468E 2019-03-04 18:56:08 13 39 23.2
003C468E 2019-03-04 18:24:06 10.4 45 23.3
003C468E 2019-03-04 17:52:03 7.2 44 23.9
003C468E 2019-03-04 17:19:59 6.2 54 24
003C468E 2019-03-04 16:47:52 1 44 24.5
003C468E 2019-03-04 16:15:43 1.3 43 24.6
003C468E 2019-03-04 15:43:34 1.5 44 24.6
003C468E 2019-03-04 15:11:25 1.7 44 24.6
003C468E 2019-03-04 14:39:16 1.9 44 24.6
003C468E 2019-03-04 14:07:07 2.1 44 24.6
003C468E 2019-03-04 13:35:00 2.3 44 24.6
003C468E 2019-03-04 13:02:50 2.6 44 24.6
003C468E 2019-03-04 12:30:42 2.8 43 24.6
003C468E 2019-03-04 11:58:34 3.2 43 24.6
003C468E 2019-03-04 11:26:27 3.6 43 24.6
003C468E 2019-03-04 10:54:21 4.1 43 25.1
003C468E 2019-03-04 10:22:14 4.6 43 25.1
003C468E 2019-03-04 09:50:09 5.3 43 25.1
003C468E 2019-03-04 09:18:03 5.7 46 25.1
003C468E 2019-03-04 08:13:45 -3.7 41 25.1
003C468E 2019-03-04 07:41:30 -3.7 40 25.2
003C468E 2019-03-04 07:09:16 -3.6 40 25.2
003C468E 2019-03-04 06:37:03 -3.5 40 24.7
003C468E 2019-03-04 06:04:49 -3.3 40 24.6
003C468E 2019-03-04 05:32:37 -3.2 40 24.6
003C468E 2019-03-04 05:00:24 -3 40 24.6
003C468E 2019-03-04 04:28:11 -2.9 40 24.6
003C468E 2019-03-04 03:55:59 -2.7 40 24
003C468E 2019-03-04 03:23:46 -2.5 40 24
003C468E 2019-03-04 02:51:33 -2.3 40 23.5
003C468E 2019-03-04 02:19:21 -2.2 40 23.5
003C468E 2019-03-04 01:47:08 -2.1 40 23.5
003C468E 2019-03-04 01:14:55 -1.9 40 23.4
003C468E 2019-03-04 00:42:42 -1.8 40 23.5
003C468E 2019-03-04 00:10:30 -1.7 40 23.5
003C468E 2019-03-03 23:38:17 -1.5 40 24.1
003C468E 2019-03-03 23:06:05 -1.3 39 24.1
003C468E 2019-03-03 22:33:52 -0.9 39 24.2
003C468E 2019-03-03 22:01:40 -0.6 39 24.2
003C468E 2019-03-03 21:29:27 -0.2 39 24.3
003C468E 2019-03-03 20:57:15 0.4 38 23.7
003C468E 2019-03-03 20:25:03 1 38 23.7
003C468E 2019-03-03 19:52:52 1.7 37 23.7
003C468E 2019-03-03 19:20:43 2.6 37 24.3
003C468E 2019-03-03 18:48:35 3.8 36 24.3
003C468E 2019-03-03 18:16:27 5.1 36 24.8
003C468E 2019-03-03 17:44:19 6.6 36 24.8
003C468E 2019-03-03 16:39:26 8.1 35 24.8
003C468E 2019-03-03 16:07:21 8.7 37 24.8
003C468E 2019-03-03 15:35:17 9.9 34 24.9
003C468E 2019-03-03 15:03:15 12.1 34 24.4
003C468E 2019-03-03 14:31:13 13.3 39 24.5
003C468E 2019-03-03 12:22:55 -1 72 24.5
003C468E 2019-03-03 11:50:40 -2.4 47 24.6
003C468E 2019-03-03 11:18:24 -3.2 47 24.6
003C468E 2019-03-03 10:46:06 -4.1 44 24.5
003C468E 2019-03-03 10:13:50 -4.6 43 24.5
003C468E 2019-03-03 09:41:34 -4.8 42 24.5
003C468E 2019-03-03 09:09:19 -4.7 41 24.5
003C468E 2019-03-03 08:37:04 -4.5 41 24.5
003C468E 2019-03-03 08:04:49 -4.2 41 23.9
003C468E 2019-03-03 07:32:36 -3.9 41 23.9
003C468E 2019-03-03 07:00:21 -3.4 41 23.9
003C468E 2019-03-03 06:28:09 -3 41 23.8
003C468E 2019-03-03 05:55:56 -2.4 41 23.7
003C468E 2019-03-03 05:23:44 -2 41 23.7
003C468E 2019-03-03 04:51:34 -1.5 41 23.7
003C468E 2019-03-03 04:19:23 -1 41 23.7
003C468E 2019-03-03 03:47:13 -0.4 41 23
003C468E 2019-03-03 03:15:04 0.1 41 22.9
003C468E 2019-03-03 02:42:55 0.5 41 22.1
003C468E 2019-03-03 02:10:46 1 42 22.1
003C468E 2019-03-03 01:38:37 1.5 42 22.1
003C468E 2019-03-03 01:06:29 1.9 41 22
003C468E 2019-03-03 00:34:20 2.4 41 21.9
003C468E 2019-03-03 00:02:13 2.9 42 22.7
003C468E 2019-03-02 23:30:07 3.3 42 22.8
003C468E 2019-03-02 22:58:01 3.8 41 22.9
003C468E 2019-03-02 22:25:55 4.2 41 22.8
003C468E 2019-03-02 21:53:48 4.7 41 22.8
003C468E 2019-03-02 21:21:42 5.3 41 22.8
003C468E 2019-03-02 20:49:36 6 40 22.8
003C468E 2019-03-02 20:17:32 6.9 40 22.9
003C468E 2019-03-02 19:45:28 7.9 39 22.9
003C468E 2019-03-02 19:13:24 9.2 38 22.9
003C468E 2019-03-02 18:41:22 10.8 37 23
003C468E 2019-03-02 18:09:20 12.7 37 23
003C468E 2019-03-02 17:37:21 14.5 38 23
003C468E 2019-03-02 16:33:18 10.7 46 23.1
003C468E 2019-03-02 16:01:16 11.6 50 23.2
003C468E 2019-03-02 15:29:15 11.3 52 23.2
003C468E 2019-03-02 14:57:13 9.5 56 23.2
003C468E 2019-03-02 14:24:32 3.9 60 23.3
003C468E 2019-03-02 13:52:22 3.6 50 23.3
003C468E 2019-03-02 13:20:11 3.4 51 23.5
003C468E 2019-03-02 12:48:00 2.9 51 23.4
003C468E 2019-03-02 12:15:47 2.3 51 23.5
003C468E 2019-03-02 11:43:35 1.4 50 23.5
003C468E 2019-03-02 11:11:21 0.1 49 23.6
003C468E 2019-03-02 10:39:05 -0.8 46 22.9
003C468E 2019-03-02 10:06:47 -1.4 45 22.8
003C468E 2019-03-02 09:34:29 -1.9 44 22.7
003C468E 2019-03-02 09:02:11 -2 44 22.8
003C468E 2019-03-02 08:29:54 -2.1 44 22.7
003C468E 2019-03-02 07:57:37 -2.1 44 22.7
003C468E 2019-03-02 07:25:19 -2.1 44 22.6
003C468E 2019-03-02 06:53:00 -2.1 44 22.6
003C468E 2019-03-02 06:20:41 -2.2 44 22.6
003C468E 2019-03-02 05:48:23 -2.3 44 22.5
003C468E 2019-03-02 05:16:05 -2.4 44 22.3
003C468E 2019-03-02 04:43:48 -2.5 43 22.2
003C468E 2019-03-02 04:11:29 -2.7 43 22.1
003C468E 2019-03-02 03:39:13 -2.8 43 22
003C468E 2019-03-02 03:06:56 -2.8 43 22
003C468E 2019-03-02 02:34:40 -2.8 42 21.9
003C468E 2019-03-02 02:02:24 -2.7 42 21.9
003C468E 2019-03-02 01:30:07 -2.5 41 21.9
003C468E 2019-03-02 00:57:51 -2.2 41 21.7
003C468E 2019-03-02 00:25:36 -1.9 41 21.6
003C468E 2019-03-01 23:53:21 -1.5 40 21.4
003C468E 2019-03-01 23:21:06 -0.9 40 21.4
003C468E 2019-03-01 22:48:52 -0.3 39 22.3
003C468E 2019-03-01 22:16:41 0.5 39 22.3
003C468E 2019-03-01 21:44:29 1.4 38 22.3
003C468E 2019-03-01 21:12:18 2.4 38 22.2
003C468E 2019-03-01 20:40:09 3.6 37 22.2
003C468E 2019-03-01 20:08:02 5.1 36 22.2
003C468E 2019-03-01 19:35:55 6.7 35 23
003C468E 2019-03-01 19:03:51 8.6 35 23
003C468E 2019-03-01 17:59:41 4.5 46 23
003C468E 2019-03-01 17:27:30 4.4 43 23.1
003C468E 2019-03-01 16:55:22 4.6 47 23
003C468E 2019-03-01 16:23:12 -2.1 49 23
003C468E 2019-03-01 15:50:56 -2.1 49 23
003C468E 2019-03-01 15:18:43 -2.2 49 23.8
003C468E 2019-03-01 14:46:29 -2.2 49 23.8
003C468E 2019-03-01 14:14:15 -2.3 49 23.9
003C468E 2019-03-01 13:42:01 -2.4 49 23.9
003C468E 2019-03-01 13:09:47 -2.4 48 24
003C468E 2019-03-01 12:37:32 -2.2 48 24
003C468E 2019-03-01 12:05:18 -2 47 24
003C468E 2019-03-01 11:32:32 -1.5 46 24.1
003C468E 2019-03-01 11:00:19 -0.7 45 24.1
003C468E 2019-03-01 10:28:06 0.4 44 24.1
003C468E 2019-03-01 09:55:57 1.8 44 24.2
003C468E 2019-03-01 09:23:47 3.6 45 23.6
003C468E 2019-03-01 08:51:37 3.1 53 23.6
003C468E 2019-03-01 08:19:23 -5.3 53 23.6
003C468E 2019-03-01 07:47:04 -5.2 50 23.6
003C468E 2019-03-01 07:14:45 -4.9 50 23.7
003C468E 2019-03-01 06:42:26 -4.5 50 23.7
003C468E 2019-03-01 06:10:09 -4.2 50 23
003C468E 2019-03-01 05:37:51 -3.8 50 23
003C468E 2019-03-01 05:05:35 -3.5 50 22.9
003C468E 2019-03-01 04:33:20 -3.1 50 22.8
003C468E 2019-03-01 04:01:06 -2.7 51 23.6
003C468E 2019-03-01 03:28:54 -2.4 51 23.5
003C468E 2019-03-01 02:56:41 -2.1 51 23.5
003C468E 2019-03-01 02:24:29 -1.7 50 22.8
003C468E 2019-03-01 01:52:17 -1.4 51 22.7
003C468E 2019-03-01 01:20:06 -0.9 50 23.4
003C468E 2019-03-01 00:47:55 -0.5 50 23.4
003C468E 2019-03-01 00:15:45 0 50 23.3
003C468E 2019-02-28 23:43:35 0.5 50 23.2
003C468E 2019-02-28 23:11:26 1.1 50 23.2
003C468E 2019-02-28 22:39:18 1.8 50 23.1
003C468E 2019-02-28 22:07:11 2.4 50 22.9
003C468E 2019-02-28 21:35:03 3.1 50 23.7
003C468E 2019-02-28 21:02:56 4 49 23.7
003C468E 2019-02-28 20:30:50 4.9 50 23.6
003C468E 2019-02-28 19:58:44 5.2 52 23.7
003C468E 2019-02-28 19:26:38 4.8 50 23.7
003C468E 2019-02-28 18:54:33 5.9 49 23.8
003C468E 2019-02-28 18:22:29 6.9 50 24.3
003C468E 2019-02-28 17:50:25 5.9 60 24.3
003C468E 2019-02-28 17:18:19 4.7 49 24.3
003C468E 2019-02-28 16:46:13 5.2 49 24.4
003C468E 2019-02-28 16:14:07 5.6 50 24.4
003C468E 2019-02-28 15:42:01 5.9 49 24.5
003C468E 2019-02-28 15:09:57 6.3 49 25
003C468E 2019-02-28 14:37:51 6.5 49 24.5
003C468E 2019-02-28 14:05:47 6.8 49 24.6
003C468E 2019-02-28 13:33:43 7 49 24.6
003C468E 2019-02-28 13:01:39 7.3 49 24.6
003C468E 2019-02-28 12:29:33 7.4 49 24.6
003C468E 2019-02-28 11:57:29 7.8 49 24.2
003C468E 2019-02-28 11:25:24 8 49 24.1
003C468E 2019-02-28 10:53:19 8.4 47 24.2
003C468E 2019-02-28 10:21:15 9.3 46 24.2
003C468E 2019-02-28 09:49:12 10.4 46 24.2
003C468E 2019-02-28 09:17:11 11.3 50 24.2
003C468E 2019-02-28 08:44:28 7.3 68 24.3
003C468E 2019-02-28 08:12:18 3.2 49 23.7
003C468E 2019-02-28 07:40:09 3.4 49 23.6
003C468E 2019-02-28 07:08:01 3.6 49 23.6
003C468E 2019-02-28 06:35:52 3.8 49 23.5
003C468E 2019-02-28 06:03:43 4 49 23.4
003C468E 2019-02-28 05:31:34 4.1 49 23.3
003C468E 2019-02-28 04:59:27 4.3 49 22.5
003C468E 2019-02-28 04:27:20 4.5 49 22.5
003C468E 2019-02-28 03:55:12 4.7 49 23.2
003C468E 2019-02-28 03:23:03 4.8 49 23.2
003C468E 2019-02-28 02:50:56 4.9 48 23.2
003C468E 2019-02-28 02:18:49 5.1 48 23.1
003C468E 2019-02-28 01:46:42 5.4 48 22.3
003C468E 2019-02-28 01:14:36 5.7 47 22.2
003C468E 2019-02-28 00:42:27 6.1 47 22.3
003C468E 2019-02-28 00:10:21 6.7 46 22.3
003C468E 2019-02-27 23:38:13 7.4 46 22.2
003C468E 2019-02-27 23:06:09 8.2 45 22.3
003C468E 2019-02-27 22:34:03 9.2 45 22.2
003C468E 2019-02-27 22:02:00 10.5 44 22.3
003C468E 2019-02-27 21:29:58 11.8 44 22.4
003C468E 2019-02-27 20:57:57 12.9 47 22.4
003C468E 2019-02-27 19:53:57 11.9 51 22.6
003C468E 2019-02-27 18:49:50 9.6 53 22.8
003C468E 2019-02-27 18:17:46 10 45 22.7
003C468E 2019-02-27 17:45:43 11 47 22.7
003C468E 2019-02-27 17:13:41 7.8 57 22.8
003C468E 2019-02-27 16:41:36 7.8 47 22.9
003C468E 2019-02-27 16:09:33 8.5 47 22.9
003C468E 2019-02-27 15:37:30 9.3 47 22.9
003C468E 2019-02-27 15:05:27 10.1 47 23
003C468E 2019-02-27 14:33:24 11.2 46 23.7
003C468E 2019-02-27 14:01:23 12.4 47 23.8
003C468E 2019-02-27 13:29:21 13.2 50 23.8
003C468E 2019-02-27 11:53:11 7.4 51 23.8
003C468E 2019-02-27 11:21:06 7.7 50 23.8
003C468E 2019-02-27 10:49:01 8.2 49 23.9
003C468E 2019-02-27 10:16:56 9.1 48 23.9
003C468E 2019-02-27 09:44:51 10.4 48 23.9
003C468E 2019-02-27 09:12:50 11.7 50 23.9
003C468E 2019-02-27 08:08:49 5 79 24.5
003C468E 2019-02-27 07:36:40 1.9 50 25
003C468E 2019-02-27 07:04:32 1.8 50 24.9
003C468E 2019-02-27 06:32:22 1.8 50 24.9
003C468E 2019-02-27 05:59:40 1.8 50 24.8
003C468E 2019-02-27 05:27:31 1.8 50 24.8
003C468E 2019-02-27 04:55:20 1.8 50 24.7
003C468E 2019-02-27 04:23:11 1.8 50 24.6
003C468E 2019-02-27 03:51:01 1.9 49 24.7
003C468E 2019-02-27 03:18:53 1.9 49 24.6
003C468E 2019-02-27 02:46:43 2.1 49 24.5
003C468E 2019-02-27 02:14:35 2.3 49 24.5
003C468E 2019-02-27 01:42:27 2.5 49 24.4
003C468E 2019-02-27 01:10:20 2.7 49 24.5
003C468E 2019-02-27 00:38:11 3 49 24.4
003C468E 2019-02-27 00:06:04 3.4 49 23.9
003C468E 2019-02-26 23:33:59 3.8 48 23.8
003C468E 2019-02-26 23:01:53 4.3 48 23.8
003C468E 2019-02-26 22:29:46 4.7 48 23.8
003C468E 2019-02-26 21:57:39 5.2 48 23.7
003C468E 2019-02-26 21:25:34 5.7 48 23.8
003C468E 2019-02-26 20:53:29 6.3 48 23.8
003C468E 2019-02-26 20:21:25 6.9 48 23.9
003C468E 2019-02-26 19:49:22 7.6 48 23.8
003C468E 2019-02-26 19:17:18 8.4 47 23.3
003C468E 2019-02-26 18:45:16 9.4 47 22.5
003C468E 2019-02-26 18:13:13 10.3 48 22.6
003C468E 2019-02-26 17:41:13 9.7 55 22.6
003C468E 2019-02-26 17:09:11 7.6 47 22.7
003C468E 2019-02-26 16:37:08 8.5 47 22.7
003C468E 2019-02-26 16:05:06 9.4 46 22.7
003C468E 2019-02-26 15:33:04 10.7 45 22.8
003C468E 2019-02-26 15:01:04 12.1 46 23.5
003C468E 2019-02-26 14:29:02 12.4 52 24.1
003C468E 2019-02-26 11:16:52 7.9 49 24.2
003C468E 2019-02-26 10:44:49 8.6 48 24.3
003C468E 2019-02-26 10:12:47 9.5 47 24.4
003C468E 2019-02-26 09:40:44 10.7 48 24.4
003C468E 2019-02-26 09:08:41 11.2 53 24.4
003C468E 2019-02-26 08:04:25 2.9 46 24.9
003C468E 2019-02-26 07:32:15 3 46 25.3
003C468E 2019-02-26 07:00:05 3.1 46 25.3
003C468E 2019-02-26 06:27:54 3.2 46 24.8
003C468E 2019-02-26 05:55:45 3.3 46 24.7
003C468E 2019-02-26 05:23:34 3.4 46 24.7
003C468E 2019-02-26 04:51:26 3.6 46 24.6
003C468E 2019-02-26 04:19:17 3.8 46 24.5
003C468E 2019-02-26 03:47:08 4.1 45 24.4
003C468E 2019-02-26 03:14:20 4.4 45 24.8
003C468E 2019-02-26 02:42:11 4.7 45 24.8
003C468E 2019-02-26 02:10:04 5.1 45 24.7
003C468E 2019-02-26 01:37:55 5.4 45 24.6
003C468E 2019-02-26 01:05:47 5.8 45 24.6
003C468E 2019-02-26 00:33:40 6.3 44 24.5
003C468E 2019-02-26 00:01:33 6.8 44 24.5
003C468E 2019-02-25 23:29:27 7.3 44 24.5
003C468E 2019-02-25 22:57:21 8.1 43 23.8
003C468E 2019-02-25 22:25:16 8.9 43 23.2
003C468E 2019-02-25 21:53:13 10 42 23.1
003C468E 2019-02-25 21:21:10 11.2 42 23
003C468E 2019-02-25 20:49:08 12.6 42 23
003C468E 2019-02-25 20:17:07 13.6 45 23
003C468E 2019-02-25 17:36:54 6.7 45 23
003C468E 2019-02-25 17:04:49 7 46 22.2
003C468E 2019-02-25 16:32:41 7.3 46 21.1
003C468E 2019-02-25 16:00:36 7.4 46 21.2
003C468E 2019-02-25 15:28:29 7.5 46 21.3
003C468E 2019-02-25 14:56:25 7.6 46 21.2
003C468E 2019-02-25 14:24:20 7.6 46 21.3
003C468E 2019-02-25 13:52:14 7.6 46 21.3
003C468E 2019-02-25 13:20:09 7.7 46 21.4
003C468E 2019-02-25 12:48:04 7.8 46 21.5
003C468E 2019-02-25 12:15:59 8 45 20.2
003C468E 2019-02-25 11:43:56 8.4 45 20.3
003C468E 2019-02-25 11:11:50 8.9 44 20.4
003C468E 2019-02-25 10:39:46 9.7 44 20.4
003C468E 2019-02-25 10:07:43 10.8 43 20.4
003C468E 2019-02-25 09:35:42 12.2 44 21.7
003C468E 2019-02-25 09:03:41 12.3 47 21.8
003C468E 2019-02-25 08:31:39 6.6 61 21.9
003C468E 2019-02-25 07:59:33 3.9 47 22.8
003C468E 2019-02-25 07:27:27 4 47 22.8
003C468E 2019-02-25 06:55:22 4 47 22.7
003C468E 2019-02-25 06:23:19 4.1 47 22.6
003C468E 2019-02-25 05:51:14 4.2 47 22.5
003C468E 2019-02-25 05:19:10 4.2 47 22.4
003C468E 2019-02-25 04:47:05 4.3 47 22.2
003C468E 2019-02-25 04:15:00 4.4 47 22.1
003C468E 2019-02-25 03:42:54 4.5 47 22
003C468E 2019-02-25 03:10:48 4.6 47 21.9
003C468E 2019-02-25 02:38:43 4.8 47 21.8
003C468E 2019-02-25 02:06:38 4.9 46 21.7
003C468E 2019-02-25 01:34:31 5.1 46 21.6
003C468E 2019-02-25 01:02:25 5.4 46 21.5
003C468E 2019-02-25 00:29:46 5.6 46 21.2
003C468E 2019-02-24 23:57:39 5.9 46 21.1
003C468E 2019-02-24 23:25:34 6.4 45 21
003C468E 2019-02-24 22:53:29 6.9 45 20.9
003C468E 2019-02-24 22:21:24 7.5 45 20.7
003C468E 2019-02-24 21:49:21 8.3 44 20.5
003C468E 2019-02-24 21:17:17 9.3 43 20.4
003C468E 2019-02-24 20:45:15 10.5 42 18.5
003C468E 2019-02-24 20:13:11 12 42 18.2
003C468E 2019-02-24 19:41:09 13.8 40 17.9
003C468E 2019-02-24 19:09:08 16.1 39 13.6
003C468E 2019-02-24 18:37:09 18 39 12.7
003C468E 2019-02-24 18:05:11 17.6 39 12.7
003C468E 2019-02-24 17:01:12 14.9 46 12.7
003C468E 2019-02-24 15:57:11 6.8 71 12.6
003C468E 2019-02-24 15:25:05 3.2 54 12.6
003C468E 2019-02-24 14:52:58 2.3 51 12.4
003C468E 2019-02-24 14:20:50 1.9 49 12.4
003C468E 2019-02-24 13:48:41 1.7 49 12.4
003C468E 2019-02-24 13:16:33 1.6 48 12.5
003C468E 2019-02-24 12:44:23 1.5 48 12.4
003C468E 2019-02-24 12:12:12 1.5 48 12.2
003C468E 2019-02-24 11:40:03 1.4 49 12
003C468E 2019-02-24 11:07:53 1.3 49 11.9
003C468E 2019-02-24 10:35:44 1.2 49 12
003C468E 2019-02-24 10:03:36 1.1 49 11.8
003C468E 2019-02-24 09:31:27 1 49 11.7
003C468E 2019-02-24 08:59:18 0.9 48 11.7
003C468E 2019-02-24 08:27:11 0.9 48 11.5
003C468E 2019-02-24 07:55:01 0.9 48 11.5
003C468E 2019-02-24 07:22:52 0.9 48 11.5
003C468E 2019-02-24 06:50:44 0.9 48 11.5
003C468E 2019-02-24 06:18:36 0.9 48 11.5
003C468E 2019-02-24 05:46:27 0.9 48 11.5
003C468E 2019-02-24 05:14:17 0.9 48 11.4
003C468E 2019-02-24 04:42:07 0.9 48 11.4
003C468E 2019-02-24 04:09:58 1 48 11.6
003C468E 2019-02-24 03:37:48 1 48 11.6
003C468E 2019-02-24 03:05:39 1.2 48 11.6
003C468E 2019-02-24 02:33:29 1.3 48 11.7
003C468E 2019-02-24 02:01:19 1.5 48 17.3
003C468E 2019-02-24 01:29:09 1.7 48 17.4
003C468E 2019-02-24 00:57:00 1.8 48 17.4
003C468E 2019-02-24 00:24:52 2 47 17.4
003C468E 2019-02-23 23:52:43 2.2 47 17.4
003C468E 2019-02-23 23:20:34 2.4 47 17.4
003C468E 2019-02-23 22:48:25 2.6 47 17.4
003C468E 2019-02-23 22:16:15 2.8 47 17.3
003C468E 2019-02-23 21:43:34 3 47 17.3
003C468E 2019-02-23 21:11:26 3.2 47 17.3
003C468E 2019-02-23 20:39:19 3.5 46 17.3
003C468E 2019-02-23 20:07:12 3.9 46 17.3
003C468E 2019-02-23 19:35:04 4.4 45 17.3
003C468E 2019-02-23 19:02:58 5 45 17.3
003C468E 2019-02-23 18:30:52 5.7 44 17.3
003C468E 2019-02-23 17:58:49 6.5 44 17.3
003C468E 2019-02-23 17:26:45 7.4 43 17.3
003C468E 2019-02-23 16:54:43 8.3 43 17.3
003C468E 2019-02-23 16:22:44 9.5 42 17.3
003C468E 2019-02-23 15:50:41 10.6 41 17.4
003C468E 2019-02-23 15:18:41 11.8 41 17.3
003C468E 2019-02-23 14:46:40 12.6 42 17.4
003C468E 2019-02-23 14:14:40 13 42 17.3
003C468E 2019-02-23 12:38:31 0.5 35 17.3
003C468E 2019-02-23 12:06:23 0.2 35 11.5
003C468E 2019-02-23 11:34:15 -0.1 35 11.5
003C468E 2019-02-23 11:02:06 -0.3 35 11.3
003C468E 2019-02-23 10:29:57 -0.6 35 11.2
003C468E 2019-02-23 09:57:50 -0.7 34 11.4
003C468E 2019-02-23 09:25:39 -0.9 34 11.6
003C468E 2019-02-23 08:53:29 -0.9 34 11.6
003C468E 2019-02-23 08:21:18 -1 34 11.7
003C468E 2019-02-23 07:49:05 -1 34 11.8
003C468E 2019-02-23 07:16:54 -1 34 11.9
003C468E 2019-02-23 06:44:42 -1.1 34 12
003C468E 2019-02-23 06:12:30 -1.1 34 12
003C468E 2019-02-23 05:40:18 -1.2 34 12.1
003C468E 2019-02-23 05:08:06 -1.3 34 12.1
003C468E 2019-02-23 04:35:57 -1.4 34 12.1
003C468E 2019-02-23 04:03:44 -1.6 34 12.1
003C468E 2019-02-23 03:31:33 -1.7 34 12.1
003C468E 2019-02-23 02:59:20 -2 34 12
003C468E 2019-02-23 02:27:06 -2.2 34 11.9
003C468E 2019-02-23 01:54:53 -2.4 34 11.7
003C468E 2019-02-23 01:22:40 -2.7 34 11.5
003C468E 2019-02-23 00:50:27 -3 34 11.5
003C468E 2019-02-23 00:18:09 -3.3 34 11.3
003C468E 2019-02-22 23:45:55 -3.6 34 11.3
003C468E 2019-02-22 23:13:40 -3.8 34 11.3
003C468E 2019-02-22 22:41:26 -4 33 11.4
003C468E 2019-02-22 22:09:11 -4.1 33 17.3
003C468E 2019-02-22 21:36:57 -4.1 33 17.3
003C468E 2019-02-22 21:04:43 -4 32 17.3
003C468E 2019-02-22 20:32:31 -3.7 32 17.3
003C468E 2019-02-22 20:00:19 -3.3 31 17.2
003C468E 2019-02-22 19:28:09 -2.7 31 17.3
003C468E 2019-02-22 18:55:25 -2 31 17.3
003C468E 2019-02-22 18:44:36 -1.8 31 17.3
003C468E 2019-02-22 18:33:47 -1.5 31 17.3
003C468E 2019-02-22 18:22:58 -1.3 31 17.4
003C468E 2019-02-22 18:12:08 -1 31 17.4
003C468E 2019-02-22 18:01:19 -0.7 31 17.4
003C468E 2019-02-22 17:50:31 -0.4 31 19.8
003C468E 2019-02-22 17:39:41 -0.1 31 19.8
003C468E 2019-02-22 17:28:52 0.1 31 19.9
003C468E 2019-02-22 17:18:04 0.4 31 19.9
003C468E 2019-02-22 17:07:14 0.7 31 19.9
003C468E 2019-02-22 16:56:26 0.9 31 19.9
003C468E 2019-02-22 16:45:38 1.2 31 19.9
003C468E 2019-02-22 16:34:49 1.5 32 21.4
003C468E 2019-02-22 16:24:01 1.7 32 21.4
003C468E 2019-02-22 16:13:13 2 32 21.4
003C468E 2019-02-22 16:02:24 2.1 32 21.5
003C468E 2019-02-22 15:51:37 2.3 32 21.5
003C468E 2019-02-22 15:40:49 2.5 32 20
003C468E 2019-02-22 15:30:01 2.6 32 20
003C468E 2019-02-22 15:19:14 2.7 33 20.1
003C468E 2019-02-22 15:08:27 2.8 33 20.2
003C468E 2019-02-22 14:57:38 2.8 33 20.2
003C468E 2019-02-22 14:46:51 2.9 33 20.2
003C468E 2019-02-22 14:36:04 2.9 33 20.3
003C468E 2019-02-22 14:25:16 3 33 20.3
003C468E 2019-02-22 14:14:28 3.1 33 20.4
003C468E 2019-02-22 14:03:41 3.1 34 20.5
003C468E 2019-02-22 13:52:53 2.9 35 20.5
003C468E 2019-02-22 13:42:05 2.5 37 20.5
003C468E 2019-02-22 13:31:19 1.8 42 20.6
003C468E 2019-02-22 13:20:30 1.6 31 18.8
003C468E 2019-02-22 13:09:41 1.6 31 18.9
003C468E 2019-02-22 12:58:53 1.5 32 19
003C468E 2019-02-22 12:48:04 1.4 33 19.1
003C468E 2019-02-22 12:37:16 1.1 33 19.2
003C468E 2019-02-22 12:26:28 0.8 34 19.3
003C468E 2019-02-22 12:15:39 0.4 34 19.3
003C468E 2019-02-22 12:04:49 -0.1 35 19.3
003C468E 2019-02-22 11:54:00 -0.5 35 19.4
003C468E 2019-02-22 11:43:11 -0.9 35 19.5
003C468E 2019-02-22 11:32:21 -1.4 35 19.6
003C468E 2019-02-22 11:21:32 -2.1 38 19.6
003C468E 2019-02-22 11:10:41 -3.2 46 19.8
003C468E 2019-02-22 10:59:54 -6 54 19.8
003C468E 2019-02-22 10:48:59 -10 39 21.2
003C468E 2019-02-22 10:38:06 -11.5 27 21.3
003C468E 2019-02-22 10:27:12 -11.6 27 21.3
003C468E 2019-02-22 10:16:18 -11.7 27 21.3
003C468E 2019-02-22 10:05:25 -11.7 27 21.3
003C468E 2019-02-22 09:53:58 -11.8 27 21.4
003C468E 2019-02-22 09:43:05 -11.8 27 21.4
003C468E 2019-02-22 09:32:11 -11.8 27 21.5
003C468E 2019-02-22 09:21:18 -11.8 27 21.5
003C468E 2019-02-22 09:10:24 -11.8 27 21.5
003C468E 2019-02-22 08:59:31 -11.8 27 21.5
003C468E 2019-02-22 08:48:39 -11.7 27 21.5
003C468E 2019-02-22 08:37:46 -11.7 27 21.5
003C468E 2019-02-22 08:26:53 -11.6 27 21.6
003C468E 2019-02-22 08:16:00 -11.5 27 21.5
003C468E 2019-02-22 08:05:07 -11.4 27 21.5
003C468E 2019-02-22 07:54:15 -11.3 27 21.6
003C468E 2019-02-22 07:43:21 -11.2 27 20.3
003C468E 2019-02-22 07:32:28 -11.1 27 20.3
003C468E 2019-02-22 07:21:36 -11.1 27 20.2
003C468E 2019-02-22 07:10:43 -10.9 27 20.2
003C468E 2019-02-22 06:59:50 -10.9 27 20.3
003C468E 2019-02-22 06:48:57 -10.8 27 20.3
003C468E 2019-02-22 06:38:04 -10.7 27 20.2
003C468E 2019-02-22 06:27:12 -10.6 26 18.4
003C468E 2019-02-22 06:16:20 -10.5 26 18.2
003C468E 2019-02-22 06:05:27 -10.3 26 18.2
003C468E 2019-02-22 05:54:35 -10.2 26 18.2
003C468E 2019-02-22 05:43:43 -10.1 26 18.1
003C468E 2019-02-22 05:32:50 -10 26 18.1
003C468E 2019-02-22 05:21:58 -9.9 26 18
003C468E 2019-02-22 05:11:06 -9.8 26 18
003C468E 2019-02-22 05:00:14 -9.7 26 18
003C468E 2019-02-22 04:49:22 -9.5 26 18
003C468E 2019-02-22 04:38:29 -9.4 26 18
003C468E 2019-02-22 04:27:36 -9.3 26 18.1
003C468E 2019-02-22 04:16:44 -9.2 26 18.1
003C468E 2019-02-22 04:05:51 -9.1 26 18.1
003C468E 2019-02-22 03:54:59 -8.9 26 18
003C468E 2019-02-22 03:44:08 -8.8 26 18.1
003C468E 2019-02-22 03:33:16 -8.7 26 18.2
003C468E 2019-02-22 03:22:24 -8.5 26 18.2
003C468E 2019-02-22 03:11:32 -8.3 26 18.1
003C468E 2019-02-22 03:00:41 -8.2 26 18
003C468E 2019-02-22 02:49:49 -8.1 26 18
003C468E 2019-02-22 02:38:57 -7.9 26 18.1
003C468E 2019-02-22 02:28:05 -7.7 26 18.1
003C468E 2019-02-22 02:17:13 -7.6 26 17.9
003C468E 2019-02-22 02:06:22 -7.4 26 18
003C468E 2019-02-22 01:55:30 -7.2 26 18
003C468E 2019-02-22 01:44:38 -7.1 26 18
003C468E 2019-02-22 01:33:48 -6.9 26 18
003C468E 2019-02-22 01:22:57 -6.7 26 18
003C468E 2019-02-22 01:12:05 -6.5 26 18.1
003C468E 2019-02-22 01:01:14 -6.3 26 17.9
003C468E 2019-02-22 00:49:51 -6.2 26 17.8
003C468E 2019-02-22 00:38:59 -6 26 17.7
003C468E 2019-02-22 00:28:09 -5.9 26 17.6
003C468E 2019-02-22 00:17:19 -5.7 26 17.5
003C468E 2019-02-22 00:06:27 -5.5 26 17.3
003C468E 2019-02-21 23:55:38 -5.3 26 17.2
003C468E 2019-02-21 23:44:47 -5.2 26 17
003C468E 2019-02-21 23:33:55 -5 26 16.8
003C468E 2019-02-21 23:23:05 -4.7 26 17
003C468E 2019-02-21 23:12:15 -4.6 25 16.7
003C468E 2019-02-21 23:01:25 -4.4 25 16.6
003C468E 2019-02-21 22:50:35 -4.2 25 16.5
003C468E 2019-02-21 22:39:46 -4 25 16.6
003C468E 2019-02-21 22:28:55 -3.8 25 16.5
003C468E 2019-02-21 22:18:06 -3.6 25 16.4
003C468E 2019-02-21 22:07:17 -3.3 25 16.1
003C468E 2019-02-21 21:56:27 -3.1 25 16.3
003C468E 2019-02-21 21:45:38 -2.9 25 16.2
003C468E 2019-02-21 21:34:49 -2.6 25 16.2
003C468E 2019-02-21 21:23:59 -2.3 25 16.3
003C468E 2019-02-21 21:13:10 -2.1 25 16.2
003C468E 2019-02-21 21:02:21 -1.8 25 16.2
003C468E 2019-02-21 20:51:31 -1.5 24 16.2
003C468E 2019-02-21 20:40:42 -1.2 24 16.2
003C468E 2019-02-21 20:29:53 -0.9 24 16.1
003C468E 2019-02-21 20:19:03 -0.5 24 16
003C468E 2019-02-21 20:08:15 -0.2 24 16
003C468E 2019-02-21 19:57:27 0.1 24 15.8
003C468E 2019-02-21 19:46:37 0.5 24 15.8
003C468E 2019-02-21 19:35:48 0.9 24 16.1
003C468E 2019-02-21 19:24:59 1.3 24 16.2
003C468E 2019-02-21 19:14:11 1.7 23 16.6
003C468E 2019-02-21 19:03:23 2.2 23 16.8
003C468E 2019-02-21 18:52:34 2.6 23 16.9
003C468E 2019-02-21 18:41:46 3.1 23 17
003C468E 2019-02-21 18:30:58 3.6 23 17.2
003C468E 2019-02-21 18:20:11 4.1 22 17.3
003C468E 2019-02-21 18:09:23 4.6 22 17.4
003C468E 2019-02-21 17:58:37 5.2 22 17.4
003C468E 2019-02-21 17:47:50 5.8 22 17.6
003C468E 2019-02-21 17:37:04 6.4 21 17.8
003C468E 2019-02-21 17:26:17 7 21 17.8
003C468E 2019-02-21 17:15:31 7.7 21 17.9
003C468E 2019-02-21 17:04:46 8.4 20 17.9
003C468E 2019-02-21 16:54:00 9.1 20 18
003C468E 2019-02-21 16:43:14 9.9 19 18
003C468E 2019-02-21 16:32:29 10.7 19 18.1
003C468E 2019-02-21 16:21:43 11.5 18 18.3
003C468E 2019-02-21 16:10:58 12.4 18 18.4
003C468E 2019-02-21 16:00:13 13.3 17 18.6
003C468E 2019-02-21 15:48:55 14.3 16 18.9
003C468E 2019-02-21 14:13:09 10.2 28 19
003C468E 2019-02-21 12:05:28 18.4 32 19.3
003C468E 2019-02-21 11:01:36 17.2 37 19.1
003C468E 2019-02-21 08:53:47 20.1 37 19.2
003C468E 2019-02-21 08:21:50 20.1 37 19.2
003C468E 2019-02-21 07:49:54 20.1 37 19.3
003C468E 2019-02-21 07:17:59 20.1 37 19.3
003C468E 2019-02-21 06:46:04 20.1 37 19.5
003C468E 2019-02-21 06:14:10 20.2 36 19.5
003C468E 2019-02-21 05:42:15 20.2 36 19.6
003C468E 2019-02-21 05:10:19 20.2 36 19.7
003C468E 2019-02-21 04:38:24 20.3 36 19.8
003C468E 2019-02-21 04:06:29 20.2 36 19.9
003C468E 2019-02-21 03:34:35 20.3 36 19.9
003C468E 2019-02-21 03:02:40 20.3 35 21.3
003C468E 2019-02-21 02:30:46 20.4 35 21.3
003C468E 2019-02-21 01:58:50 20.4 35 22.4
003C468E 2019-02-21 01:26:54 20.5 35 23.2
003C468E 2019-02-21 00:54:59 20.5 35 23.9
003C468E 2019-02-21 00:23:02 20.5 34 23.9
003C468E 2019-02-20 23:51:09 20.6 34 24.5
003C468E 2019-02-20 23:19:12 20.7 34 24.4
003C468E 2019-02-20 22:47:18 20.7 33 24.3
003C468E 2019-02-20 22:15:23 20.7 33 24.3
003C468E 2019-02-20 21:43:27 20.8 33 24.3
003C468E 2019-02-20 21:11:31 20.8 32 24.3
003C468E 2019-02-20 20:39:36 20.8 32 24.2
003C468E 2019-02-20 20:07:40 20.8 32 24.3
003C468E 2019-02-20 19:35:44 20.8 31 24.2
003C468E 2019-02-20 19:03:48 20.7 31 24.2
003C468E 2019-02-20 18:31:52 20.5 31 24.2
003C468E 2019-02-20 17:59:55 20.2 31 24.1
003C468E 2019-02-20 16:56:03 21.4 17 24
003C468E 2019-02-20 16:24:08 21.6 18 24
003C468E 2019-02-20 15:52:13 21.7 18 23.9
003C468E 2019-02-20 15:20:20 21.9 18 23.8
003C468E 2019-02-20 14:48:25 22.3 18 23.8
003C468E 2019-02-20 14:16:31 22.8 19 23.8